GEFSNGP_500_meanwind_018.txt.gz
Wind_Speed
14 9 6 5 3 4 7 6 6 6 6 7 7 7 7 7 7 6 8 10 10 11 11 12 12 14 16 18 19 20 22 23 24 21 17 16 17 18 19 19 19 20 20 20
11 8 8 8 9 9 9 7 5 4 3 3 3 3 3 4 4 5 6 8 9 11 12 13 13 15 16 17 19 20 22 23 22 19 16 16 18 19 20 20 20 20 20 20
12 10 10 10 10 10 9 9 7 6 6 4 3 2 0 0 1 2 3 5 6 8 10 10 11 12 13 15 16 17 18 19 19 17 17 18 18 20 21 22 22 22 21 20
13 12 12 11 11 10 11 10 11 12 10 9 8 6 5 4 3 2 1 2 3 3 4 5 7 8 9 11 13 14 16 17 17 18 18 19 20 21 22 22 22 23 22 21
13 14 13 12 12 12 13 12 12 12 11 10 10 9 9 8 7 5 5 4 3 1 1 3 5 7 10 12 14 15 16 17 17 18 19 19 20 21 21 21 21 22 21 20
14 13 14 13 13 13 13 13 12 12 12 11 10 10 10 9 8 6 5 4 2 1 3 5 7 9 11 12 14 14 15 16 16 17 18 18 19 20 20 20 20 19 19 19
15 14 14 14 13 13 13 13 12 11 11 11 11 11 11 10 8 7 5 4 3 4 6 7 8 10 11 13 14 15 16 16 17 17 18 19 19 20 19 19 18 18 18 18
15 14 14 13 12 13 13 13 12 11 10 11 11 12 11 10 9 8 7 6 7 7 8 9 10 11 13 14 15 16 17 17 17 18 19 19 19 18 18 17 17 17 18 19
13 12 11 11 11 11 11 11 10 9 9 10 11 11 10 10 9 9 9 10 10 10 10 11 12 12 13 15 16 17 17 18 18 19 19 19 18 17 16 16 17 18 20 21
12 11 9 9 9 9 9 9 8 8 8 9 9 9 9 9 10 10 11 11 11 12 12 13 14 14 15 16 17 18 18 18 18 18 17 16 15 15 15 16 17 19 20 21
10 10 9 8 6 7 7 6 7 7 8 8 8 8 8 9 10 11 12 12 12 13 14 15 15 15 15 16 16 16 16 16 16 15 14 13 13 13 14 15 17 18 18 19
8 9 8 7 6 6 6 5 5 6 6 6 6 6 7 8 9 11 12 13 14 14 15 15 15 16 17 17 16 15 15 14 13 13 12 12 12 13 13 14 15 15 16 17
9 7 7 6 5 4 4 4 4 4 4 4 4 5 5 7 8 10 12 13 15 16 16 16 16 17 17 17 16 16 15 15 14 13 13 13 13 13 13 13 13 14 14 14
13 7 4 4 4 3 3 2 2 2 2 2 2 3 4 5 7 9 11 13 15 16 16 16 17 18 18 17 17 17 16 16 16 16 15 15 15 15 14 14 14 14 14 13
20 11 5 2 1 2 2 2 1 1 1 1 0 1 3 4 6 8 11 13 14 15 16 16 17 18 18 17 17 17 17 17 18 18 18 18 18 17 17 17 16 16 15 14
26 20 12 5 1 2 2 3 3 3 3 3 2 2 3 3 5 7 9 11 13 14 15 16 17 17 17 17 17 17 18 18 18 19 19 19 20 20 20 20 19 18 17 15
25 24 19 13 6 3 4 5 5 6 6 6 6 6 5 4 4 5 7 9 11 13 14 15 15 16 16 17 17 17 18 18 19 19 20 20 21 21 22 22 22 21 20 19
21 22 22 18 14 9 5 6 7 8 8 9 9 9 8 7 6 5 5 7 9 11 12 13 13 14 14 15 16 17 17 17 17 18 19 20 20 21 22 23 24 24 24 23
15 18 19 19 17 15 11 8 8 9 11 12 13 13 12 11 9 7 5 4 6 9 10 11 11 12 12 13 14 15 15 16 16 16 17 17 18 19 20 21 22 23 23 23
12 14 16 17 18 17 16 14 11 10 11 13 14 14 14 13 12 10 7 5 4 6 8 9 9 9 10 11 12 13 14 14 15 15 15 15 16 17 18 18 19 20 21 21
11 12 13 15 16 17 18 18 17 14 13 13 14 15 16 15 14 13 10 8 5 4 5 7 7 8 8 9 10 11 12 12 13 13 14 15 15 15 16 16 16 17 18 18
12 12 13 14 15 17 18 19 20 19 17 14 13 14 16 17 16 15 14 11 8 6 5 5 6 6 6 6 7 9 10 11 12 13 14 14 15 15 15 15 15 15 16 16
15 14 14 14 15 17 18 20 21 21 21 19 18 15 14 17 18 17 17 15 12 9 7 6 5 5 5 4 5 6 7 8 10 11 13 14 15 15 15 15 15 14 14 14
17 16 16 16 16 17 18 19 21 22 23 23 21 19 13 14 18 18 18 18 16 14 11 9 7 6 5 4 3 4 5 6 8 9 11 13 14 15 15 14 14 14 14 13
20 19 18 18 18 18 19 19 21 22 23 24 23 21 17 13 14 18 20 20 19 17 15 12 10 9 8 6 5 4 3 4 6 8 10 12 13 14 14 13 13 12 13 13
23 21 20 19 20 20 20 21 21 22 23 24 25 24 21 16 13 14 18 21 21 20 18 16 14 13 11 9 8 6 5 5 6 7 9 11 12 13 13 12 12 11 11 12
26 24 23 21 21 21 22 22 23 23 23 24 25 24 23 21 16 14 16 19 22 22 21 20 19 17 15 13 11 9 8 7 7 8 9 10 11 12 12 11 11 10 10 10

GEFSNGP_500_meanwind_024.txt.gz
Wind_Speed
22 21 19 18 17 15 13 13 12 12 10 7 6 6 6 7 7 7 7 6 5 5 6 6 5 5 6 7 10 12 15 16 18 18 18 18 18 18 18 19 20 21 21 22
22 20 18 17 17 17 17 16 15 14 13 10 9 9 8 8 8 8 7 7 6 5 3 3 4 5 7 9 11 12 14 15 16 16 16 15 15 16 17 18 20 21 22 22
20 19 18 18 17 17 17 16 15 15 14 13 11 11 10 10 11 10 9 7 5 3 1 1 2 4 5 7 9 10 12 13 15 15 15 15 16 16 17 19 20 21 21 22
20 19 18 17 17 16 16 16 15 14 14 14 12 13 13 13 14 13 11 9 7 5 4 4 3 4 6 7 9 11 13 14 16 16 17 17 18 18 18 19 20 21 22 22
19 18 17 17 16 15 15 15 14 14 13 13 13 13 14 15 15 14 13 11 9 8 7 6 6 6 7 8 10 11 13 14 16 16 17 18 18 19 19 19 20 21 21 21
18 16 16 15 15 15 15 15 14 13 13 13 13 14 14 14 14 14 12 11 10 9 8 8 8 8 9 10 11 13 14 15 16 17 18 18 19 19 19 19 20 20 20 20
17 16 16 15 14 14 14 14 14 13 13 13 14 14 13 13 13 12 12 11 10 10 9 9 9 10 10 11 13 14 16 17 17 18 18 19 20 20 20 19 19 19 19 19
16 15 14 14 13 13 13 13 13 12 12 12 12 12 12 12 12 12 12 12 12 11 12 12 12 13 14 14 15 16 17 17 18 18 19 19 19 19 18 18 18 17 17 18
14 13 13 13 12 12 12 11 11 10 10 10 10 10 11 12 12 13 14 14 14 14 14 15 16 16 17 17 17 17 17 18 18 18 18 18 17 17 16 16 15 15 15 15
12 12 12 11 11 11 11 10 9 8 7 7 7 8 10 11 12 13 14 15 15 15 16 16 17 17 18 18 18 18 17 17 17 17 17 16 16 15 15 14 13 13 12 13
11 10 10 9 9 9 9 8 7 6 5 5 5 7 8 10 12 13 14 15 16 16 17 17 17 18 18 18 18 18 18 17 17 17 17 16 16 15 14 13 13 12 11 12
10 10 9 8 7 7 7 6 5 5 4 4 5 5 7 9 11 12 14 15 16 16 16 17 17 17 17 17 18 18 18 19 19 19 19 18 18 17 16 15 14 13 13 12
12 10 9 7 6 7 6 6 5 4 3 3 4 5 6 8 9 11 13 14 15 15 16 16 16 16 17 17 18 18 19 19 20 20 21 21 20 19 18 17 16 15 15 14
15 12 10 8 6 7 7 6 5 5 4 4 4 4 5 6 7 9 11 12 13 14 15 15 15 15 16 17 17 18 19 19 20 21 22 23 23 22 22 20 19 18 18 17
17 15 13 10 8 7 6 6 6 6 6 6 5 4 4 5 5 7 9 11 12 13 13 14 14 14 15 15 16 17 18 19 20 21 23 24 24 24 24 23 22 22 21 21
16 16 15 14 11 8 7 6 5 6 6 6 5 5 4 4 4 5 6 8 10 11 12 13 13 13 13 14 15 16 17 18 19 20 21 22 23 24 24 24 23 23 23 23
13 15 16 15 15 12 9 7 7 7 7 7 6 6 5 5 4 4 4 5 7 9 10 11 11 12 12 13 13 14 15 16 17 18 19 20 21 22 23 23 23 23 23 23
11 12 14 15 16 15 14 11 10 10 9 8 6 6 6 5 5 4 3 3 4 6 8 9 10 11 11 11 12 13 14 15 16 17 18 18 19 19 20 21 22 23 23 23
11 11 12 13 15 15 15 15 13 12 11 9 7 6 7 7 6 5 4 3 2 3 5 7 9 10 10 10 10 11 12 14 15 16 17 17 17 18 18 19 20 21 22 22
14 12 11 12 14 15 15 15 15 14 13 12 9 7 7 8 8 7 6 5 4 3 3 5 7 8 8 9 9 10 11 12 14 15 16 16 17 17 17 17 18 18 19 19
18 16 14 13 13 14 15 15 15 15 15 14 13 9 7 6 6 7 7 7 6 5 4 3 5 6 7 7 8 8 9 10 12 13 15 15 16 16 16 16 17 17 17 17
22 20 18 16 15 14 15 15 15 15 15 15 15 13 10 7 4 5 8 9 9 8 6 5 4 4 5 6 6 7 7 8 9 11 13 14 15 15 15 15 16 16 15 15
25 24 22 20 18 17 16 15 15 15 15 15 15 14 12 9 6 5 7 8 10 10 10 8 7 5 5 5 5 6 6 6 7 8 10 12 13 14 14 14 14 15 15 14
27 28 27 25 22 20 19 17 16 16 15 15 15 14 12 11 9 5 5 8 9 11 11 11 10 8 6 5 5 6 6 6 7 7 8 10 11 13 13 14 14 14 14 14
29 29 30 29 27 25 23 21 19 18 17 16 15 14 13 12 10 8 6 6 9 11 12 13 13 12 10 8 6 6 6 7 7 7 8 8 10 11 12 13 13 13 13 14
32 31 31 31 31 29 26 25 23 21 19 18 17 16 14 13 11 10 8 7 8 9 12 13 14 15 14 12 10 8 8 7 7 7 8 8 9 10 11 11 12 12 13 13
36 34 33 33 34 33 31 29 27 25 23 21 19 18 16 15 13 12 10 9 8 9 11 13 15 16 17 16 14 13 11 10 9 8 8 9 9 10 10 10 11 11 12 12

GEFSNGP_500_meanwind_030.txt.gz
Wind_Speed
23 22 21 22 20 20 19 19 18 16 14 13 12 10 11 11 10 10 10 11 11 10 9 9 9 9 7 5 4 3 2 3 4 4 5 7 8 10 12 13 15 17 18 18
23 22 21 20 19 19 18 19 19 18 17 15 15 15 16 15 13 13 13 13 12 11 9 9 8 7 6 5 4 4 4 4 5 6 8 9 10 12 14 15 17 18 19 19
22 21 20 19 18 17 17 17 18 19 20 19 19 18 18 17 17 16 15 15 14 13 12 11 9 8 7 7 6 5 6 7 8 9 10 11 13 14 16 18 19 20 21 21
21 21 20 19 18 17 17 18 18 19 20 20 20 20 19 18 18 17 17 16 15 14 13 11 10 9 8 8 7 7 7 8 10 11 12 14 15 16 18 19 20 21 21 22
20 20 20 19 17 16 16 17 17 18 18 19 19 19 19 19 18 17 16 15 14 13 12 11 10 10 9 9 9 9 10 11 12 12 13 15 16 17 19 19 20 21 22 22
19 19 19 18 17 16 16 16 17 17 18 18 18 19 18 18 17 16 15 15 13 12 11 11 10 10 9 9 10 10 11 11 12 13 14 15 16 17 18 19 20 20 21 21
18 18 17 17 17 16 15 15 15 16 16 16 17 17 16 16 16 15 14 14 13 13 12 12 11 11 10 10 10 11 11 12 13 13 14 15 16 16 16 16 16 17 18 18
17 16 16 16 16 15 14 13 13 14 14 15 15 15 15 15 15 15 14 14 14 13 13 13 12 12 12 12 12 12 13 13 14 14 14 14 14 14 13 12 12 13 13 14
16 15 15 15 14 13 12 11 12 12 12 13 13 13 13 14 14 14 15 15 15 15 15 14 14 14 14 14 14 14 15 15 15 15 15 15 15 15 13 12 11 10 10 11
14 14 14 14 13 12 11 10 10 11 11 11 11 11 12 13 14 14 15 16 16 16 17 17 16 16 16 16 16 17 17 18 18 18 18 18 17 17 15 14 12 11 11 11
15 14 13 14 13 12 11 9 9 9 9 9 10 10 11 11 13 14 15 16 16 17 17 17 17 17 17 17 17 18 18 19 20 20 20 20 19 19 18 16 15 14 13 13
15 14 13 13 12 11 11 10 8 8 8 8 8 8 9 10 11 13 14 15 16 16 16 17 17 17 17 17 18 18 19 20 21 21 21 21 21 20 20 19 18 17 16 16
14 14 13 12 12 11 11 10 9 8 8 7 6 7 7 8 9 11 12 13 14 15 15 16 16 16 17 17 17 17 18 19 20 21 21 21 22 22 21 21 20 20 19 19
12 13 13 13 12 12 11 11 9 8 7 7 6 5 6 6 7 8 10 11 12 14 14 14 14 15 15 16 16 16 17 17 19 20 21 21 22 22 22 22 22 22 22 22
10 12 12 13 13 12 12 12 11 9 7 6 5 4 4 5 5 6 7 8 10 11 12 12 13 13 14 15 15 15 15 16 16 17 19 20 20 21 22 22 22 23 23 23
9 10 11 12 12 12 11 12 11 9 7 6 5 4 4 4 4 4 5 6 7 8 10 11 11 12 12 13 14 14 15 15 15 16 17 18 19 19 20 21 22 22 23 23
9 8 9 10 11 11 12 12 11 10 8 6 5 5 4 4 3 3 3 4 5 6 7 8 9 10 11 12 13 13 14 14 14 14 15 16 16 17 18 19 20 21 21 22
12 10 9 9 10 10 10 12 12 11 9 7 6 6 5 4 3 3 3 3 4 4 5 6 7 8 9 10 11 12 13 14 14 14 14 14 15 15 16 16 17 18 19 20
15 14 12 10 9 9 9 9 10 10 10 9 8 7 6 4 4 4 4 4 4 3 3 4 5 6 7 8 9 10 11 12 13 14 14 14 14 14 14 15 15 16 16 17
17 17 16 14 12 11 10 9 9 9 9 9 9 8 7 5 4 4 5 5 5 5 4 4 4 4 5 6 7 7 8 10 11 12 13 13 13 13 13 14 14 14 14 14
21 20 19 18 16 15 13 11 10 9 8 9 9 9 7 6 5 4 5 7 7 7 7 6 5 4 4 4 5 5 6 7 8 10 11 12 13 12 12 12 13 13 12 12
25 23 22 21 20 19 17 15 13 11 10 9 8 8 8 7 6 6 5 7 8 9 9 8 7 6 5 5 4 4 5 5 6 8 10 11 12 12 12 12 12 12 12 12
28 27 26 25 24 22 21 20 18 16 13 12 10 9 8 8 7 7 6 6 8 9 10 10 10 9 8 7 6 5 5 5 5 6 7 9 10 11 12 11 11 11 11 11
32 30 29 28 27 26 25 24 22 21 19 17 14 12 11 10 9 8 7 7 7 9 10 11 11 11 11 10 9 8 7 6 6 6 6 7 8 10 11 11 11 10 10 10
35 34 32 31 30 30 29 27 26 25 24 22 20 17 15 13 11 10 9 9 9 9 10 11 12 13 13 13 12 11 10 9 8 7 7 7 7 8 9 10 10 10 9 9
39 37 36 35 34 33 32 31 30 29 28 26 24 22 20 17 15 13 12 10 9 10 11 12 13 14 14 14 15 15 14 12 11 10 9 8 8 8 8 8 9 9 9 9
44 42 40 38 37 37 36 35 34 33 31 30 29 27 25 22 20 17 16 14 12 11 10 11 12 14 15 15 16 16 16 16 15 14 13 11 10 9 9 8 8 8 8 8

GEFSNGP_500_meanwind_036.txt.gz
Wind_Speed
19 19 19 20 21 22 22 22 21 22 22 21 19 18 18 16 14 14 13 12 11 11 11 11 12 12 11 10 9 9 8 7 6 5 5 5 5 5 5 6 7 9 12 13
20 20 19 20 21 22 22 23 23 23 23 22 23 23 23 22 20 18 18 18 17 16 15 14 14 14 13 13 11 10 9 9 8 7 7 7 6 6 8 9 11 13 14 15
21 19 19 21 21 20 20 21 22 22 22 22 22 23 23 23 23 21 21 20 19 18 17 16 15 15 13 13 12 11 10 10 9 9 9 9 9 10 11 12 13 15 16 17
20 20 21 20 19 19 19 20 20 21 22 21 21 21 22 22 21 21 20 19 18 17 16 15 15 14 13 12 12 11 11 11 11 11 11 11 12 12 13 14 15 16 17 18
20 20 19 18 17 17 17 18 19 20 20 20 20 20 21 21 20 20 19 18 18 17 16 16 15 15 14 14 13 13 13 13 13 13 12 13 13 13 14 14 15 16 16 17
19 19 19 17 16 15 16 17 17 18 18 19 19 20 20 20 19 19 18 18 17 17 17 17 17 16 16 15 15 15 15 15 15 14 14 14 14 14 14 14 14 14 14 14
18 17 17 17 15 14 15 16 16 16 17 17 18 19 19 19 18 18 18 18 17 17 17 17 17 17 17 17 17 17 17 17 17 17 16 16 16 16 16 16 15 14 13 13
17 17 16 16 15 14 14 14 14 15 15 15 16 17 17 17 17 17 17 17 17 17 17 17 17 18 18 18 19 19 20 20 20 19 18 18 18 18 18 18 17 15 14 14
17 16 16 16 16 15 14 13 13 13 13 14 14 15 16 16 16 17 17 17 17 17 17 17 17 18 18 19 19 20 21 21 21 21 20 20 20 20 19 19 18 17 17 16
16 16 16 15 15 15 14 13 12 12 12 12 13 14 14 14 15 15 16 16 17 17 17 17 17 17 18 18 18 19 20 21 22 22 22 22 22 21 21 21 20 20 20 19
14 16 16 15 15 15 14 13 12 12 12 11 11 12 12 13 13 14 15 15 16 16 16 16 17 17 17 17 18 19 20 21 22 22 23 23 23 22 22 22 22 22 22 22
12 14 15 16 15 15 15 13 11 11 11 10 10 10 10 11 11 12 13 14 14 14 15 15 15 16 16 16 17 18 19 20 21 21 22 22 23 23 23 23 24 23 23 24
11 12 14 15 15 15 15 14 12 11 10 9 9 8 8 9 9 9 10 11 12 13 13 13 14 15 15 15 16 17 17 19 20 20 21 22 22 23 23 23 24 24 24 25
9 11 12 13 14 15 15 14 13 12 10 9 8 7 6 6 7 7 8 8 10 11 12 12 13 14 14 14 15 15 16 17 18 18 19 20 21 22 22 23 24 24 25 25
10 10 10 11 12 13 14 14 14 12 11 9 7 7 6 5 5 5 5 6 7 8 9 10 12 12 13 14 14 14 15 16 16 17 18 18 19 20 20 21 22 23 23 24
11 11 10 10 11 11 12 13 13 13 12 10 8 6 5 4 4 4 4 4 5 6 7 8 9 10 12 13 13 14 14 15 15 16 17 17 18 18 19 19 20 21 21 22
13 12 12 11 11 10 10 11 12 12 12 11 9 7 5 5 4 4 4 4 4 4 5 6 7 8 9 11 12 13 13 14 15 15 16 16 17 17 18 18 18 19 19 20
16 15 14 13 12 11 10 10 10 10 11 11 10 9 7 6 6 6 6 5 5 4 4 4 5 7 8 9 10 11 12 13 14 14 15 16 16 17 17 17 17 17 17 17
18 18 17 16 15 14 13 12 11 10 10 10 10 9 9 8 7 7 7 7 7 6 6 5 5 5 6 7 8 9 10 11 12 14 14 15 16 16 17 17 16 16 16 16
22 21 20 19 17 16 15 15 13 12 11 10 10 9 9 9 9 9 8 8 8 8 8 7 7 6 6 6 6 7 8 9 10 12 13 14 14 15 15 16 16 15 15 15
26 25 24 22 21 20 19 18 17 16 15 14 12 11 11 10 10 10 9 9 10 10 10 9 9 8 7 7 7 7 7 7 8 10 11 12 13 14 14 15 15 15 14 14
31 29 28 27 25 24 23 21 20 19 18 17 17 15 14 13 12 11 11 11 11 11 11 11 11 11 10 9 9 8 8 8 8 8 9 10 11 12 13 13 13 13 13 12
36 34 33 31 30 28 27 25 24 23 22 21 20 19 19 17 16 14 13 12 12 12 12 12 12 12 12 12 11 11 10 9 9 8 9 9 10 10 11 11 12 12 11 11
40 39 37 36 35 33 31 30 29 27 26 25 24 23 23 22 21 19 17 16 14 14 13 13 14 14 14 14 14 13 13 12 11 10 10 9 9 9 10 10 10 10 10 9
45 43 42 40 39 37 36 35 33 31 30 29 28 27 26 26 25 24 22 20 19 17 16 15 15 15 15 15 15 16 15 15 14 13 12 11 11 10 10 10 9 9 9 9
50 48 47 45 44 42 41 39 38 36 34 34 33 32 31 29 29 28 27 25 23 22 20 18 17 16 16 17 17 18 18 17 17 16 16 15 14 13 12 11 10 10 10 9
53 52 51 50 48 46 45 43 42 40 39 38 38 36 35 34 33 32 31 30 28 27 25 23 21 19 18 18 18 19 19 20 20 20 19 18 17 16 15 14 13 12 12 11

GEFSNGP_500_meanwind_042.txt.gz
Wind_Speed
18 18 18 19 19 20 20 20 21 21 21 22 22 23 21 20 21 20 19 17 17 18 17 16 15 14 14 12 12 11 10 9 8 7 6 5 4 4 4 4 5 6 7 8
18 18 18 19 20 20 20 20 20 21 20 21 21 21 22 21 21 22 22 21 20 20 20 19 19 18 16 15 13 12 11 10 9 8 8 7 6 6 6 6 7 9 10 11
18 18 18 19 19 20 20 20 20 20 20 20 20 20 20 20 20 20 20 20 20 19 19 19 19 18 17 16 15 14 13 12 11 10 9 9 8 8 8 8 9 10 11 12
18 18 19 19 19 19 19 19 19 19 19 19 19 19 19 19 19 19 20 20 20 19 19 19 19 18 18 17 17 16 15 14 13 12 11 11 11 10 10 10 10 11 12 13
19 19 19 19 18 18 18 18 18 18 19 18 18 18 19 19 19 19 19 19 20 20 19 19 19 19 19 18 18 17 17 17 16 15 15 14 14 13 12 11 11 12 12 13
19 19 19 18 18 17 17 18 18 18 18 18 18 19 19 19 20 19 19 19 19 19 19 19 19 19 20 19 19 20 19 19 18 17 17 16 16 16 15 14 13 13 12 13
18 18 18 18 18 17 17 18 17 18 18 18 18 19 19 20 20 20 19 19 19 19 19 19 20 20 20 20 20 20 20 20 20 19 19 18 18 18 18 17 16 15 14 13
17 17 17 18 17 17 17 17 17 17 17 17 18 18 18 19 19 19 19 19 19 19 19 19 19 20 20 21 21 21 21 21 21 21 21 20 20 20 20 19 19 18 17 15
16 17 17 17 17 17 16 16 16 16 16 16 16 16 17 17 17 17 18 18 18 19 19 19 19 19 19 20 20 21 21 21 22 22 22 22 22 22 22 22 21 21 20 18
13 15 16 16 17 17 16 15 15 15 15 14 14 14 14 15 15 16 16 16 17 17 17 17 17 17 18 18 19 19 19 20 21 21 22 22 23 23 23 23 23 23 22 21
11 13 14 14 15 16 16 14 13 13 13 13 12 12 12 13 13 14 14 14 15 15 16 16 15 15 16 16 17 18 18 19 19 20 21 22 22 23 23 23 24 24 24 23
9 10 12 12 13 14 15 15 13 12 12 11 11 10 10 10 10 11 11 12 12 13 13 14 14 14 14 15 16 16 17 17 18 19 20 21 21 22 23 23 24 24 24 24
7 8 9 10 11 12 13 14 13 11 10 10 9 9 8 8 8 8 9 9 10 11 12 12 12 13 13 13 14 15 16 17 17 18 19 20 20 21 22 22 23 24 24 24
7 7 7 8 8 10 10 11 12 11 10 8 8 8 7 7 6 6 7 7 8 9 9 10 11 12 12 13 13 14 15 16 17 18 18 19 19 20 20 21 22 23 24 24
8 7 6 6 7 7 8 9 10 10 9 8 7 7 7 7 6 6 6 7 7 7 7 8 9 10 10 11 12 13 14 15 16 17 17 18 19 19 19 20 21 22 22 23
9 8 8 7 7 7 7 7 7 8 8 8 7 6 6 7 7 6 6 6 7 7 6 7 7 8 8 9 10 11 13 14 15 16 17 18 18 18 19 19 20 20 21 21
11 10 10 9 9 8 8 8 7 7 7 7 6 6 6 7 7 7 7 7 7 7 6 6 6 7 7 7 8 9 11 12 14 15 16 16 17 17 18 18 18 18 19 19
14 13 12 11 10 10 10 10 9 9 8 7 7 7 6 7 8 8 8 8 8 7 7 7 7 7 6 6 7 8 9 10 11 13 14 15 15 16 16 16 17 17 17 17
17 16 15 14 13 12 12 12 12 12 11 11 10 9 8 8 8 8 8 8 8 8 8 8 8 7 7 7 7 7 7 8 9 10 11 13 13 14 15 15 15 15 15 15
22 20 19 17 16 16 15 14 14 14 14 14 13 13 12 11 11 10 10 9 9 9 9 9 9 9 8 8 8 8 8 8 8 8 9 10 11 12 13 13 13 13 13 13
26 25 23 22 21 20 19 18 17 17 17 17 17 17 16 16 15 14 13 12 11 11 10 10 10 10 10 9 9 9 9 9 9 8 8 8 9 10 10 11 11 11 11 11
31 30 29 27 26 25 24 22 22 21 21 21 20 20 20 20 19 18 18 17 16 14 14 13 12 11 11 11 11 10 10 10 10 10 9 9 9 9 9 9 9 9 9 9
37 35 34 33 32 30 29 28 27 26 25 25 24 24 24 23 23 22 22 21 20 19 18 17 15 14 13 13 13 13 12 12 11 11 11 11 10 10 9 9 9 8 8 8
43 42 41 39 37 36 34 33 32 31 30 29 28 28 27 27 27 26 26 25 25 24 22 21 20 19 17 16 15 15 15 14 14 13 13 12 12 12 11 11 10 9 9 8
48 48 47 46 44 42 41 39 38 36 35 34 33 33 32 31 30 30 29 29 29 28 27 26 25 23 22 21 19 18 17 17 17 16 16 15 15 14 14 14 13 12 12 11
53 53 52 51 49 48 46 45 43 41 40 39 38 38 37 36 35 34 33 33 32 32 31 30 29 28 27 26 24 23 21 20 19 18 18 18 18 18 17 17 16 16 15 15
55 56 55 55 54 52 51 49 48 46 45 44 43 43 42 41 39 38 38 37 37 36 35 35 34 33 32 31 29 28 26 25 23 22 21 20 20 20 20 20 20 19 19 18

GEFSNGP_500_meanwind_048.txt.gz
Wind_Speed
17 17 18 18 18 18 18 18 18 18 18 18 18 18 18 19 20 21 22 21 21 21 21 20 19 19 19 18 17 15 14 14 13 11 10 9 8 7 7 6 6 7 7 8
17 17 18 18 18 18 19 19 18 18 18 18 19 19 19 20 20 21 22 23 22 21 21 21 20 19 19 19 18 17 16 16 15 14 13 13 11 10 9 9 8 8 7 8
17 17 17 18 18 18 18 18 18 19 19 18 18 19 19 20 20 21 22 23 23 23 23 22 22 21 21 20 19 18 18 17 16 16 15 15 14 13 12 12 11 10 9 9
17 17 17 17 17 18 18 18 18 18 18 18 18 19 19 20 21 21 21 22 22 22 22 21 21 21 21 21 21 20 19 18 18 17 17 16 15 15 14 14 14 13 12 11
17 17 17 17 17 17 17 17 17 17 18 18 18 18 18 19 20 20 20 21 21 21 21 21 21 21 21 21 22 22 21 20 20 19 19 19 18 17 17 17 16 15 14 13
16 17 17 17 16 16 16 16 16 16 16 16 16 17 17 18 18 19 19 19 20 20 20 21 21 21 21 22 22 22 22 22 22 21 21 21 21 20 20 19 19 18 17 15
14 15 16 16 15 15 15 15 14 15 15 15 15 15 16 16 17 17 17 18 18 19 19 20 20 20 20 21 21 22 22 22 22 22 22 22 22 21 21 21 21 20 20 18
12 13 14 15 14 13 13 13 13 13 13 13 13 13 14 14 15 16 16 16 17 17 17 18 18 19 19 19 20 20 21 21 21 22 22 22 22 22 22 22 22 22 21 20
10 11 11 13 13 12 11 12 12 11 11 11 11 12 12 13 14 14 15 15 15 15 16 16 17 17 18 18 19 20 20 21 21 22 22 22 23 23 23 23 23 22 22 22
8 9 9 10 11 11 10 10 10 10 10 10 10 10 10 11 12 12 13 14 14 14 14 15 15 16 17 18 18 19 20 21 21 21 21 22 22 23 23 23 23 23 22 22
7 7 7 7 8 9 9 8 8 8 9 8 8 8 8 9 10 10 11 12 13 13 13 13 14 15 15 16 17 18 19 20 21 21 21 21 22 23 23 23 24 23 23 22
7 7 6 6 6 7 7 7 6 6 6 7 7 7 7 7 8 8 9 10 11 11 12 13 13 13 14 15 16 17 18 19 20 21 21 21 21 22 22 23 23 23 23 23
8 8 7 6 5 5 5 6 5 5 4 5 5 6 6 6 7 7 8 9 9 9 10 11 12 12 13 14 15 16 18 19 20 20 20 21 21 21 22 22 22 23 23 23
10 10 9 8 7 6 6 5 5 4 4 3 4 4 5 5 6 6 7 7 8 8 9 10 10 11 12 13 14 15 17 18 19 20 20 21 21 21 21 21 21 22 22 23
12 12 11 10 10 9 8 7 5 5 4 4 3 4 4 5 5 6 6 7 7 8 8 9 9 10 10 11 12 13 14 16 17 19 19 20 20 20 20 20 20 21 21 22
16 14 13 13 12 12 11 10 9 8 7 6 5 5 4 5 5 6 6 7 7 8 8 9 9 9 9 9 10 11 12 13 15 16 18 18 19 19 19 19 19 19 20 20
20 18 17 16 15 14 14 13 13 11 10 9 8 7 7 6 6 6 7 7 7 7 8 9 9 9 9 9 9 9 10 11 12 13 15 16 17 17 17 18 18 18 18 18
23 22 20 19 18 17 17 16 15 14 13 12 11 11 10 9 8 8 8 8 8 8 8 9 9 9 10 9 9 9 9 10 10 11 12 13 14 15 15 15 15 15 15 15
27 26 24 23 22 21 20 19 18 17 17 16 15 14 13 12 12 11 10 10 10 9 9 9 9 10 10 10 10 10 10 10 10 10 10 11 11 12 13 13 13 13 13 13
30 29 28 27 26 25 24 23 22 21 20 19 18 18 17 16 15 15 14 13 13 13 12 12 11 11 11 11 11 11 11 11 10 10 10 10 10 10 10 10 11 11 11 10
35 33 32 31 30 29 28 27 26 25 24 23 22 21 20 20 19 19 18 17 16 16 15 15 14 14 13 13 13 13 12 12 12 11 11 11 10 10 10 9 9 9 9 9
39 38 37 35 34 33 32 31 30 29 28 27 26 25 25 24 23 22 22 21 20 20 19 19 18 17 16 16 16 15 15 15 14 14 13 13 12 12 11 11 10 9 9 8
44 43 41 40 39 38 37 36 35 34 33 32 31 30 29 29 28 27 26 25 24 24 23 23 22 21 20 20 19 18 18 17 17 16 16 16 15 14 14 13 13 12 11 10
49 48 47 46 45 43 42 41 40 39 38 37 36 35 34 33 32 32 31 29 28 28 27 27 26 25 24 24 23 22 21 20 20 19 19 18 18 17 17 16 15 15 15 14
53 52 52 51 50 49 48 47 46 44 43 42 41 40 39 38 37 36 35 34 33 32 32 31 30 29 28 28 27 26 25 24 24 23 22 21 21 21 20 20 19 19 18 17
57 56 56 56 55 54 53 53 52 50 49 48 47 46 45 44 42 41 40 39 38 37 37 36 35 34 33 32 31 30 30 29 28 28 27 26 25 24 24 24 23 22 22 21
61 60 60 60 60 59 59 58 57 56 55 54 53 52 50 49 48 47 46 45 44 43 42 41 40 39 38 37 36 35 34 33 32 32 31 30 29 29 28 27 27 26 26 25

GEFSNGP_500_meanwind_054.txt.gz
Wind_Speed
16 16 17 17 17 17 17 17 16 16 16 16 17 18 19 19 19 20 21 21 21 21 21 21 20 20 19 18 18 17 16 15 14 13 12 10 8 6 4 3 2 3 6 8
16 16 16 17 17 17 17 17 16 16 16 16 17 18 19 20 20 20 21 21 21 21 21 21 21 21 20 20 19 19 18 17 17 16 14 13 11 9 8 7 6 5 5 6
16 16 15 16 16 16 16 16 15 16 16 16 17 17 18 19 19 20 20 20 20 21 21 21 21 21 21 21 20 19 19 18 18 17 16 15 14 13 11 10 9 8 7 7
15 16 15 15 15 15 15 15 14 14 15 15 16 16 17 17 18 19 19 20 20 20 20 21 21 21 21 21 20 20 20 20 20 19 18 17 16 16 15 13 12 11 9 9
14 15 15 14 13 13 14 14 13 13 13 14 14 15 16 16 16 17 17 18 19 19 20 20 21 21 21 21 21 20 20 19 19 19 18 18 18 17 16 15 15 14 12 11
12 13 14 13 13 12 12 13 13 12 12 12 13 14 14 15 15 16 16 16 16 17 18 19 19 20 20 20 20 20 20 19 19 19 19 19 19 18 17 17 16 16 14 13
9 10 12 12 12 12 11 11 11 12 12 11 11 12 12 13 13 14 14 14 15 15 16 17 18 18 19 19 20 20 19 19 19 19 19 19 19 19 18 18 17 17 16 15
7 8 9 10 11 11 10 10 10 10 10 11 11 11 11 12 12 12 13 13 14 14 15 15 16 17 18 19 19 20 19 19 19 20 20 20 20 20 19 19 19 18 17 17
5 6 7 8 8 9 9 9 9 8 8 8 9 9 9 10 10 11 11 12 12 13 13 14 15 16 17 18 19 20 20 19 19 20 20 20 21 21 21 20 20 19 19 18
6 6 6 6 6 7 7 7 7 7 7 7 7 8 8 8 9 9 10 11 11 12 12 13 14 14 15 17 18 19 20 20 20 20 20 21 21 21 21 22 22 21 20 19
8 7 7 6 6 6 6 6 6 6 6 6 6 7 7 8 8 9 9 9 10 11 11 12 12 13 14 15 17 18 19 20 20 20 20 20 21 21 21 22 23 23 22 20
10 9 9 8 8 7 7 6 6 6 6 6 6 6 6 7 8 8 8 9 9 10 10 10 11 11 12 14 15 16 18 19 20 20 20 20 21 21 21 21 22 23 23 22
13 12 11 11 10 10 9 9 8 7 7 7 6 6 6 7 7 7 8 8 9 9 9 9 10 10 11 11 13 14 16 17 18 19 19 20 20 20 20 21 21 22 23 23
16 15 14 14 13 13 12 11 11 10 9 8 8 7 7 7 7 7 8 8 8 9 9 9 9 9 9 10 10 12 13 14 16 17 18 18 19 19 19 20 20 21 21 22
19 18 17 16 16 16 15 15 14 13 12 11 10 9 9 9 8 8 8 8 8 8 8 8 9 9 9 9 9 9 10 11 13 14 15 16 16 17 17 18 18 19 19 20
22 21 21 20 19 19 18 18 17 16 15 14 13 12 12 11 10 10 9 9 8 8 8 8 8 8 8 8 8 8 9 9 10 11 12 13 14 14 15 15 16 16 17 17
26 25 24 23 23 22 21 21 20 20 19 18 17 16 15 14 13 12 11 10 9 9 9 8 8 8 8 8 8 8 8 8 9 9 9 10 11 11 12 12 13 13 13 14
30 29 28 27 26 25 25 24 24 23 22 21 20 19 18 17 16 15 14 13 12 11 11 10 9 9 9 9 9 8 8 8 8 8 8 8 8 9 9 9 10 10 10 10
35 34 32 31 30 29 28 27 27 26 25 24 23 22 22 20 19 18 17 16 15 14 13 13 12 11 11 10 10 9 9 9 8 8 8 8 8 8 7 7 8 8 8 8
41 39 37 36 34 33 32 31 30 29 28 28 26 26 25 24 22 21 20 19 18 17 16 16 15 14 13 13 12 12 11 11 10 10 9 9 9 8 8 8 7 7 7 6
47 45 43 41 39 37 36 35 34 33 32 31 30 29 28 27 25 24 23 22 21 20 19 19 18 17 16 16 15 14 14 13 13 12 12 11 11 11 10 10 9 9 8 8
52 51 48 47 45 43 41 40 38 37 36 35 34 33 32 30 29 28 27 26 24 23 22 21 21 20 19 19 18 17 16 16 15 15 14 14 14 13 13 13 12 12 11 11
56 55 54 52 50 48 46 45 43 41 40 39 38 37 36 35 33 31 30 30 28 26 25 25 24 23 22 22 21 21 20 19 19 18 18 17 16 16 16 15 15 15 14 14
59 59 58 56 55 53 51 49 48 46 45 44 43 42 40 39 37 36 35 34 32 30 30 29 28 27 26 25 25 24 23 23 22 22 21 21 21 20 19 19 18 18 18 17
63 62 61 60 59 58 56 55 53 52 50 49 47 46 45 43 42 41 40 38 37 35 34 34 32 31 30 29 29 28 27 26 26 25 25 25 24 24 24 24 23 23 22 22
65 65 65 65 64 62 61 59 58 57 55 54 53 51 50 48 47 46 45 43 42 40 39 39 37 36 35 34 33 32 32 31 30 30 30 29 29 29 28 28 27 27 27 26
66 66 67 68 68 67 66 65 63 62 61 59 58 57 55 54 53 51 50 48 47 46 45 44 42 41 40 39 38 37 37 36 36 35 35 34 34 34 33 33 32 32 31 31

GEFSNGP_500_meanwind_060.txt.gz
Wind_Speed
12 13 14 15 16 15 15 15 14 15 15 15 15 16 17 17 18 19 19 20 21 21 22 23 23 22 21 21 21 20 20 20 20 19 17 15 14 13 12 10 9 7 7 7
12 12 13 14 15 16 15 15 14 14 14 14 15 15 16 16 17 18 19 19 20 21 22 22 22 23 22 22 22 21 21 21 20 19 18 17 17 15 14 12 11 9 8 8
12 12 12 13 15 15 15 14 14 14 14 14 14 14 15 16 17 17 18 19 20 21 21 22 22 22 22 22 22 22 22 21 21 20 19 18 18 18 17 16 14 12 11 10
12 13 13 13 13 14 15 14 14 14 14 14 14 14 15 15 16 16 17 18 18 19 20 21 21 22 22 22 22 22 22 22 21 21 20 20 19 19 19 18 16 14 13 11
10 12 12 12 12 12 13 13 13 13 13 13 13 13 14 14 16 16 16 17 17 18 19 20 21 21 22 22 22 22 22 22 22 22 22 21 20 20 20 19 18 16 15 13
9 10 11 11 11 11 12 12 13 13 12 12 12 13 13 14 15 15 16 16 16 17 17 18 19 20 21 22 22 22 22 23 23 23 22 22 22 22 22 21 19 18 17 15
8 8 9 10 10 11 11 11 12 12 12 12 12 12 13 13 14 15 15 15 16 16 16 17 18 19 20 21 22 22 22 23 24 24 24 23 23 23 23 22 21 20 19 17
9 8 8 9 9 9 10 10 10 11 11 12 12 12 13 13 14 14 15 15 15 15 15 16 17 18 18 19 21 22 22 23 24 24 24 24 24 24 24 23 23 22 20 19
10 10 10 9 9 9 9 9 9 10 10 11 11 12 13 13 13 14 14 14 14 14 14 15 15 16 17 18 19 21 21 22 23 24 24 25 24 25 24 24 24 23 22 21
13 12 12 12 11 11 10 10 10 10 10 10 11 11 12 12 12 13 13 13 13 13 13 14 14 15 15 16 18 19 20 21 22 23 23 24 24 25 25 25 24 24 23 22
15 15 14 14 13 13 13 12 12 11 11 10 11 11 11 11 11 12 12 12 12 12 13 13 13 13 14 14 15 16 18 19 20 21 22 23 24 24 24 25 24 24 24 23
18 17 17 16 15 15 15 14 14 13 13 12 12 11 11 11 11 11 11 12 12 12 12 12 12 12 12 12 13 13 15 16 17 18 20 21 22 23 23 24 24 24 24 23
22 21 20 19 18 18 18 17 16 16 15 14 14 13 12 12 11 11 11 11 11 11 11 11 11 11 11 11 11 12 12 13 14 15 16 18 19 20 21 22 22 22 22 22
26 24 23 23 22 21 21 20 19 18 17 17 16 15 15 14 13 13 12 12 12 11 11 11 11 10 10 10 10 11 11 11 12 12 13 14 15 16 17 18 19 20 20 20
30 28 27 26 26 26 25 24 23 22 21 19 18 18 17 16 16 15 14 14 13 12 11 11 10 10 10 10 10 10 10 10 10 10 11 11 11 12 13 14 15 16 17 17
34 33 32 31 30 30 29 28 27 25 24 23 22 21 20 19 18 18 17 16 15 14 13 12 12 11 10 10 10 9 9 9 9 9 9 9 9 10 10 11 11 12 13 13
38 37 37 36 35 34 33 32 31 30 28 27 26 24 23 22 21 20 20 19 18 17 16 15 14 14 13 12 11 10 10 10 9 9 8 8 8 8 8 8 9 9 10 10
43 42 41 41 40 39 37 36 35 34 33 32 30 28 26 25 24 24 23 22 21 20 20 19 18 17 16 14 13 12 12 11 11 10 10 9 9 8 8 8 8 8 8 8
48 47 47 46 45 44 43 41 40 39 38 37 35 33 31 30 28 27 26 25 23 23 23 22 21 20 19 18 17 16 15 14 13 12 12 11 10 10 9 9 8 8 8 8
51 52 52 51 50 49 48 47 45 44 43 42 40 38 36 34 33 32 30 28 26 27 27 25 24 23 22 21 20 19 18 17 16 15 15 14 13 12 12 11 10 10 9 9
55 55 56 57 56 55 54 52 51 49 48 47 45 43 41 40 39 37 35 32 30 31 30 28 27 27 26 25 24 23 21 20 19 18 17 17 16 15 14 14 13 13 12 12
57 58 59 60 60 60 59 58 57 55 54 52 50 49 47 45 43 42 40 37 35 35 34 32 31 30 30 28 27 26 25 24 23 22 21 20 19 19 18 17 16 16 15 15
59 60 60 60 62 62 63 63 62 61 59 58 56 54 53 51 49 47 45 42 41 40 38 36 35 34 34 32 31 30 29 28 27 26 25 24 23 22 22 21 20 19 18 18
62 62 62 62 62 63 65 66 66 66 65 63 61 59 58 56 55 53 51 49 47 45 43 40 39 39 38 37 35 34 33 32 31 30 29 28 27 26 25 24 24 23 23 22
62 63 63 64 63 64 64 65 68 69 69 68 66 64 62 61 60 58 56 55 52 50 48 46 45 44 43 41 40 38 37 36 35 34 33 32 31 30 29 28 27 27 26 26
63 64 64 64 64 64 64 65 66 69 71 72 70 69 67 65 64 62 61 59 58 56 54 52 51 49 48 46 45 44 42 41 40 38 37 37 35 34 33 33 32 31 30 30
65 65 65 65 65 64 64 64 64 66 69 71 73 73 72 70 68 66 65 64 62 61 59 58 56 55 53 52 50 49 48 46 45 43 42 41 40 39 38 37 37 36 35 35

GEFSNGP_500_meanwind_066.txt.gz
Wind_Speed
8 9 10 11 11 12 13 13 13 13 13 14 15 16 17 17 17 18 19 20 21 22 22 22 22 22 23 23 23 23 23 22 21 20 18 17 17 16 15 13 11 9 7 6
7 8 9 10 11 11 12 12 13 13 13 13 14 15 16 17 17 18 18 19 20 21 22 22 22 23 23 23 23 23 23 23 23 22 21 20 19 18 17 15 14 12 9 7
7 7 8 9 10 10 11 11 12 12 13 13 13 15 15 16 17 17 18 18 19 20 21 22 22 23 23 23 23 23 23 23 23 23 22 21 21 20 18 17 16 14 11 8
6 6 7 8 9 10 10 11 11 12 12 13 13 14 15 16 16 17 17 17 18 19 20 21 21 22 23 23 23 23 24 24 24 23 23 22 22 21 21 19 18 16 14 11
5 5 6 7 8 8 9 10 11 11 11 12 13 14 14 15 16 16 17 17 17 18 19 19 20 21 22 23 23 23 24 24 25 24 24 23 23 22 22 21 20 18 16 14
3 4 5 6 7 8 8 9 10 11 11 12 12 13 13 14 15 15 16 16 16 17 18 18 19 19 20 21 22 23 24 24 25 25 24 24 23 23 22 22 22 20 18 17
3 4 4 5 6 6 7 8 9 10 10 11 12 12 12 13 13 14 14 15 15 16 16 17 18 18 19 19 20 21 22 24 25 25 24 24 24 24 23 23 23 22 20 19
6 6 6 6 6 6 7 8 9 9 10 10 11 12 12 12 12 13 13 14 14 14 15 15 16 16 17 18 18 19 20 22 23 23 24 24 24 24 24 24 23 23 22 21
9 9 9 9 9 8 8 9 9 10 10 10 11 11 12 12 12 12 13 13 13 14 14 14 15 15 15 16 16 17 18 19 20 21 22 23 24 24 24 24 24 23 23 22
12 11 11 11 11 12 11 11 11 11 11 11 12 12 12 12 13 13 13 13 13 13 13 14 14 14 14 14 14 15 16 17 17 18 19 21 22 23 23 23 23 23 23 22
14 14 13 14 14 14 14 14 14 14 13 13 13 13 14 14 14 13 13 13 14 14 13 13 13 13 13 13 13 13 14 14 15 15 16 17 19 20 21 21 21 21 22 22
16 16 16 16 16 16 16 16 16 16 16 16 15 15 15 15 15 15 14 14 14 14 14 14 13 13 13 13 12 12 12 12 13 13 14 14 15 16 17 19 19 19 19 20
19 19 19 20 20 20 19 19 19 19 19 18 18 18 18 18 17 17 17 16 15 15 15 14 14 13 13 13 12 12 12 11 11 11 11 12 12 13 13 14 15 16 17 17
23 23 23 23 24 24 23 23 23 23 22 22 21 21 21 20 20 20 19 19 18 17 17 16 15 15 14 13 13 12 12 12 11 11 10 10 10 10 10 11 11 12 13 13
28 28 28 28 28 28 28 27 27 27 26 26 25 25 24 23 23 23 23 22 21 21 20 19 18 18 17 16 15 14 13 13 12 12 11 10 10 9 9 8 8 9 9 10
33 33 33 33 33 33 33 32 32 31 31 30 30 29 28 27 26 26 26 26 25 24 24 23 22 22 20 19 18 17 16 15 14 14 13 12 11 10 9 9 8 7 7 7
37 38 39 39 39 39 38 38 37 36 36 35 35 34 33 32 31 30 30 30 29 27 27 26 26 26 25 23 22 21 19 18 17 16 15 14 13 12 11 10 9 9 8 7
41 42 43 43 44 44 44 43 43 42 42 41 40 39 38 37 36 35 35 34 33 31 30 31 31 30 29 28 26 25 24 22 21 20 19 18 16 15 14 13 12 11 10 9
45 45 46 47 47 47 48 48 48 48 47 47 46 45 44 43 42 41 40 39 37 35 35 36 35 33 32 32 31 29 28 27 25 24 22 21 20 19 17 16 15 14 13 12
45 46 47 48 49 50 50 51 51 51 51 51 51 50 49 48 47 46 45 44 42 40 40 40 39 37 36 35 35 34 32 31 29 28 27 25 24 22 21 20 19 18 17 16
42 43 44 46 48 49 50 51 52 53 53 54 54 54 53 53 52 52 51 49 47 47 46 45 44 42 41 40 39 38 36 35 34 32 31 30 28 26 25 24 23 21 20 19
41 42 43 44 45 47 49 51 52 53 54 55 55 56 56 56 56 56 55 54 52 52 52 50 49 47 46 45 44 42 40 39 38 36 35 34 32 31 29 28 26 25 24 23
41 42 44 45 46 47 49 50 52 53 55 56 57 57 58 58 58 58 58 58 58 57 56 55 54 53 52 51 49 47 45 43 42 40 39 38 37 35 34 32 30 29 28 27
44 46 47 48 49 50 51 53 54 55 56 58 59 59 60 60 61 62 62 61 60 60 60 59 58 58 57 56 54 52 50 48 46 45 43 42 41 40 38 36 35 33 32 31
49 50 52 53 54 55 56 57 57 58 59 59 60 60 61 61 61 62 63 63 63 63 62 62 62 62 61 60 59 57 55 53 51 50 48 47 45 44 42 41 39 37 36 35
53 55 56 58 59 60 61 62 62 62 62 62 62 62 62 62 63 63 63 63 64 65 65 65 65 65 65 64 64 62 60 59 57 55 53 51 50 48 47 45 44 42 40 39
57 58 60 61 62 63 64 65 65 65 65 65 64 64 64 63 63 63 63 63 64 65 65 66 67 67 68 68 67 67 65 64 62 60 58 56 55 53 51 49 48 46 45 43

GEFSNGP_500_meanwind_072.txt.gz
Wind_Speed
4 4 5 5 6 6 7 8 9 10 11 12 13 14 15 16 17 17 18 19 20 20 21 22 22 22 22 22 23 24 25 25 25 25 24 23 22 21 20 19 17 15 13 10
4 4 4 5 5 6 7 8 9 10 11 12 13 14 15 15 16 17 18 18 19 20 20 21 22 22 23 23 23 24 24 25 25 25 26 25 24 23 22 21 19 18 16 13
3 3 3 4 4 5 7 8 9 10 11 12 12 13 14 15 16 17 17 18 18 19 19 20 21 22 23 23 23 24 24 24 25 26 26 26 26 25 23 22 21 19 18 16
1 1 2 3 4 5 6 7 8 9 10 11 12 13 14 15 15 16 17 17 18 18 19 19 20 21 22 22 23 23 24 24 24 25 26 27 26 26 26 24 22 21 20 18
1 1 2 3 4 5 6 7 8 9 10 11 12 12 13 14 15 15 16 17 17 18 18 18 19 19 20 21 22 22 23 23 24 24 25 26 27 27 27 26 24 23 22 20
4 4 4 4 5 5 6 7 8 9 10 11 11 12 13 13 14 15 15 16 17 17 17 18 18 18 19 20 20 21 21 22 23 24 24 25 26 27 27 27 26 24 23 22
7 7 7 7 7 7 8 9 9 10 10 11 12 12 13 13 14 14 15 16 16 17 17 17 18 18 18 18 19 19 20 21 21 22 23 24 25 25 26 26 26 25 24 23
10 10 11 10 10 10 11 11 12 12 12 13 13 13 14 14 15 15 15 16 16 16 17 17 17 17 18 18 18 18 19 19 20 20 21 22 23 23 24 25 25 24 23 23
13 13 13 13 13 13 14 14 14 15 15 15 15 15 15 16 16 16 16 17 17 17 17 17 17 17 17 17 17 17 18 18 18 19 19 20 20 21 22 23 23 23 22 22
16 16 16 15 16 16 16 17 17 17 17 17 17 17 17 17 17 18 18 18 18 18 18 18 18 18 18 18 18 17 18 18 18 18 18 18 18 19 19 20 20 21 21 20
18 18 18 18 18 18 18 18 18 18 19 19 19 19 20 20 20 20 20 20 19 19 19 19 19 19 18 18 18 18 18 18 18 17 17 17 17 16 16 17 17 18 19 19
20 20 20 20 21 21 21 21 21 21 21 21 22 22 22 22 22 22 22 22 22 21 21 21 21 20 20 20 19 19 19 18 18 18 17 17 16 16 15 14 14 15 15 16
22 22 23 23 23 24 24 24 24 25 25 25 25 25 25 25 25 25 25 24 24 24 24 24 23 23 22 21 21 20 20 20 19 19 18 18 17 16 15 14 13 13 13 13
25 26 26 26 27 27 28 28 28 28 28 28 28 28 28 28 28 28 28 28 27 27 27 27 26 26 25 24 23 23 22 22 21 21 20 19 18 18 17 15 14 13 12 12
29 29 30 30 31 31 31 32 32 32 32 32 32 32 32 31 32 32 32 31 31 30 30 30 29 30 29 28 26 26 25 24 24 23 22 21 21 20 18 17 16 15 14 12
33 34 34 35 35 35 36 36 36 36 36 37 37 36 36 35 35 35 35 35 34 34 34 33 33 33 33 32 30 29 28 27 26 26 25 24 23 22 21 20 19 18 16 15
37 38 39 39 40 40 40 40 41 41 41 40 40 40 39 39 39 39 39 39 38 38 38 38 37 37 36 35 34 33 32 31 30 29 28 27 26 25 24 23 22 21 20 18
42 42 43 43 44 44 45 45 44 44 43 43 42 42 42 41 42 42 42 42 42 41 41 41 41 40 40 39 39 37 36 35 34 33 32 31 29 28 27 26 25 24 23 22
44 45 45 46 46 47 47 47 47 46 45 45 44 44 44 43 43 43 43 43 43 43 44 44 45 44 44 44 44 42 41 40 39 38 36 35 34 32 31 30 29 28 27 26
46 46 47 47 47 48 48 47 47 46 46 45 45 45 45 45 45 45 45 46 46 46 46 46 47 47 48 48 48 47 46 45 44 43 42 40 38 37 36 34 33 31 30 29
46 46 47 47 47 46 45 45 44 44 43 43 44 45 45 46 46 47 47 47 47 48 48 48 48 49 50 50 51 51 51 50 49 48 47 46 44 42 41 39 38 36 35 33
45 45 45 44 43 42 42 42 42 43 43 44 44 44 45 46 47 47 48 49 49 49 50 50 50 51 51 52 53 54 54 54 54 53 52 51 50 48 46 45 43 41 40 38
42 42 41 40 39 40 40 41 41 42 43 44 45 46 47 48 49 49 50 51 52 53 53 53 53 53 54 54 55 56 57 57 58 57 57 56 55 54 52 51 49 47 45 43
38 38 38 38 39 39 40 41 42 44 45 46 47 48 49 51 52 53 54 55 56 56 57 57 58 58 58 58 58 59 59 60 61 61 61 61 60 59 58 56 54 52 51 49
38 38 38 39 39 40 41 43 44 46 47 48 50 51 52 54 55 56 57 58 59 60 60 61 61 61 62 62 62 62 62 62 63 63 64 65 64 64 62 61 59 57 55 53
38 39 39 40 41 42 43 44 46 47 49 50 52 54 55 57 58 59 60 61 62 63 63 64 64 64 64 63 63 63 64 64 64 65 66 66 67 67 66 65 64 62 60 58
40 40 41 42 43 44 45 46 47 49 50 52 53 55 56 58 59 60 62 63 63 64 65 65 65 65 64 64 63 63 63 64 65 65 66 67 68 68 69 68 67 66 64 62

GEFSNGP_500_meanwind_078.txt.gz
Wind_Speed
7 6 5 5 5 5 5 5 5 6 7 8 9 10 11 12 13 14 15 16 16 17 17 18 19 19 20 21 21 22 22 23 24 25 25 26 25 25 24 23 22 20 18 16
7 6 5 5 4 4 4 4 5 6 7 8 9 10 11 12 12 13 14 15 16 16 17 17 18 19 20 20 21 22 22 23 23 24 25 25 26 26 25 24 23 22 20 18
6 5 5 4 3 2 2 3 4 5 6 7 8 10 11 11 12 13 14 14 15 16 16 17 18 18 19 20 21 21 22 22 23 23 24 25 26 26 26 25 25 23 22 20
6 5 3 2 1 1 1 2 3 4 5 7 8 9 10 11 12 13 14 14 15 16 16 17 17 18 19 19 20 21 21 22 22 23 23 24 25 25 26 26 25 24 23 21
5 5 4 3 2 2 2 3 4 5 6 7 9 10 11 12 12 13 14 15 16 16 17 17 17 18 18 19 19 20 21 21 21 21 22 23 24 24 25 25 25 24 24 23
6 6 6 5 5 5 5 5 6 7 8 9 10 11 12 13 13 14 14 15 16 16 17 17 18 18 18 19 19 19 20 20 21 21 21 21 22 23 24 24 24 23 23 22
8 8 7 7 7 8 8 8 9 9 10 11 12 12 13 14 14 15 15 16 16 17 17 17 18 18 18 19 19 19 19 20 20 20 20 20 21 21 22 23 22 22 21 21
11 11 10 10 10 11 11 11 12 12 12 13 13 14 14 15 15 16 16 17 17 18 18 18 18 18 19 19 19 19 19 19 19 19 19 20 19 20 20 21 21 20 20 20
14 13 13 13 13 14 14 14 14 14 14 15 15 15 15 16 16 17 17 18 18 19 19 19 19 19 19 19 19 19 19 19 19 19 19 19 19 19 18 19 19 19 18 18
17 16 16 16 16 16 16 16 16 16 16 16 17 17 17 18 18 19 19 20 20 20 20 20 20 20 20 20 20 20 20 20 20 20 20 19 19 18 18 17 17 17 17 17
19 19 19 19 19 18 18 18 18 18 18 18 19 19 20 20 20 21 21 22 22 22 22 22 22 22 22 21 21 21 21 20 20 20 20 20 19 19 18 17 17 17 16 16
21 21 21 21 21 21 20 20 20 20 20 21 21 22 22 22 23 23 23 24 24 25 25 25 25 24 23 23 23 22 22 22 21 21 20 20 20 20 19 19 18 17 16 16
23 23 23 23 23 22 22 22 22 23 23 23 24 24 25 25 26 26 27 27 28 28 27 27 27 27 26 25 25 24 24 24 24 23 22 22 21 21 20 20 19 18 17 17
25 25 25 25 25 25 25 25 25 26 26 27 27 27 28 29 29 30 30 30 30 30 30 30 30 29 29 28 28 27 27 27 26 25 25 24 24 23 22 22 21 20 20 19
28 28 28 28 28 28 28 28 28 29 29 30 30 31 31 32 33 33 33 33 32 32 32 32 32 31 31 30 30 29 29 29 29 28 28 27 27 26 26 25 24 23 22 21
31 31 30 30 30 31 31 31 32 33 33 33 34 34 34 35 35 35 35 35 35 34 34 34 34 33 33 33 32 32 31 31 32 31 31 31 30 30 29 29 28 27 26 25
34 34 34 34 34 34 35 35 36 36 36 37 37 37 37 37 37 37 37 36 36 36 35 35 35 35 35 35 34 34 34 34 34 34 34 34 34 34 33 33 32 31 30 29
37 37 37 37 37 38 39 39 39 39 39 39 39 39 39 38 38 38 38 37 37 36 36 36 36 36 36 36 36 36 36 36 36 36 36 37 37 37 37 37 36 36 35 34
40 40 40 41 41 41 42 42 42 41 41 41 41 40 40 39 39 38 37 37 37 37 37 37 38 38 37 37 37 37 37 38 38 38 39 39 40 40 40 41 41 40 40 39
43 43 43 44 44 44 44 43 43 43 43 43 42 42 41 40 39 38 37 37 37 37 37 37 38 38 38 38 39 40 40 40 41 41 41 41 42 43 43 44 44 45 45 44
45 45 45 45 45 45 45 45 45 44 44 43 43 43 41 40 39 39 38 38 38 38 38 38 39 39 40 41 42 42 43 43 44 44 44 45 45 46 47 47 48 49 49 49
47 47 47 47 47 47 46 46 45 45 44 44 43 42 41 40 40 39 39 39 39 40 41 41 42 42 43 44 44 45 46 46 47 48 48 49 50 50 51 51 52 53 53 54
48 48 48 48 47 47 46 46 45 44 44 43 42 41 40 40 40 40 40 41 41 42 43 43 44 45 46 47 48 48 49 50 51 52 52 53 54 55 55 56 57 57 58 58
47 47 47 46 46 45 45 44 44 44 43 43 42 41 40 40 41 41 42 43 43 44 45 46 47 48 49 50 51 51 52 53 54 55 56 56 57 58 58 59 60 61 62 62
47 47 46 46 45 44 44 43 43 43 42 42 41 41 41 41 42 43 44 44 45 46 48 49 50 51 52 53 54 55 56 57 57 58 59 59 59 59 60 60 61 62 63 64
46 45 45 45 44 43 43 42 41 41 40 40 40 41 42 43 44 44 45 46 48 49 50 51 52 53 54 55 56 57 58 58 59 59 60 60 60 61 61 61 61 62 62 63
43 43 43 42 42 42 41 41 41 41 41 41 42 43 44 44 45 46 47 48 49 50 51 52 53 54 55 56 57 57 58 58 59 59 59 59 59 59 59 59 59 59 60 60

GEFSNGP_500_meanwind_084.txt.gz
Wind_Speed
10 8 8 8 7 6 5 4 2 2 1 2 4 5 7 8 10 11 12 13 14 15 16 17 17 18 19 20 21 21 21 22 22 23 24 25 25 25 25 25 24 23 22 20
9 8 8 8 7 6 5 4 3 2 1 2 4 5 7 8 10 11 12 13 14 15 16 17 17 18 19 20 20 21 21 21 22 22 23 24 24 25 25 25 24 23 23 22
10 9 8 8 7 6 5 4 3 3 3 3 5 6 8 9 10 11 13 14 15 16 17 17 18 19 19 19 20 20 21 21 21 21 22 23 23 24 24 24 24 23 23 23
10 9 8 7 7 6 6 5 4 4 4 5 6 7 9 10 11 12 13 14 15 16 17 18 18 19 19 19 20 20 20 21 21 21 21 22 22 23 23 23 23 23 22 23
11 10 8 8 7 7 7 6 6 6 6 7 8 9 10 11 12 12 14 14 15 16 17 18 18 19 19 19 19 20 20 20 20 20 20 21 21 21 22 22 22 22 22 22
12 11 10 9 9 9 8 8 8 8 9 10 10 11 11 12 13 14 14 15 16 17 18 18 19 19 19 19 19 20 20 20 20 20 20 20 20 20 20 21 20 21 21 21
14 14 13 10 11 11 11 9 10 11 11 12 13 13 14 14 14 15 16 16 17 18 18 19 20 20 20 20 20 20 20 20 20 20 20 20 20 20 20 20 20 20 20 20
17 16 15 12 14 14 13 13 13 14 14 14 15 15 15 16 16 16 17 18 18 19 19 20 20 21 21 21 21 21 21 21 21 21 21 20 20 20 20 20 19 19 19 19
19 18 16 16 17 17 17 16 16 16 16 17 17 17 17 17 17 18 18 19 19 20 21 21 22 22 23 23 23 23 23 23 22 22 22 21 21 20 20 20 19 19 19 19
22 21 20 20 20 20 20 19 19 19 19 19 19 18 18 18 19 19 20 20 21 22 22 23 24 24 25 25 25 25 24 24 24 23 23 22 22 21 21 20 20 20 19 19
25 24 23 23 23 23 23 22 22 21 21 21 21 20 20 20 21 21 22 22 23 24 25 25 26 27 27 27 27 27 26 26 25 25 24 24 24 23 23 22 22 21 21 20
27 27 26 25 25 25 25 25 24 24 23 23 23 23 22 23 23 23 24 25 25 26 27 28 29 29 29 28 28 28 28 28 27 27 26 25 25 25 24 24 24 23 23 22
29 29 28 27 27 27 27 27 26 26 26 25 25 25 25 25 25 26 26 27 28 28 29 30 31 31 31 30 30 30 30 29 29 28 28 27 27 26 26 26 26 26 26 25
31 31 31 30 30 30 29 29 29 28 28 28 27 27 28 28 28 28 29 29 30 31 32 32 33 33 32 32 32 31 31 30 30 29 29 29 30 30 29 28 28 28 28 28
33 33 33 32 32 32 32 32 31 31 31 30 30 30 30 30 30 31 31 32 33 33 33 34 34 33 33 33 33 32 32 31 31 31 31 31 32 32 32 31 31 30 30 30
36 36 36 35 34 35 35 35 34 34 34 33 33 33 33 33 33 34 34 35 35 35 35 35 35 35 35 35 34 34 33 33 33 33 33 33 33 33 33 32 32 32 33 33
38 39 38 38 38 38 38 38 37 37 37 36 36 36 36 36 36 36 37 37 37 37 37 37 37 37 37 36 36 35 35 34 34 34 33 33 33 33 33 34 34 34 35 35
41 42 41 41 41 41 41 41 40 40 40 40 40 40 39 39 39 39 40 40 39 39 39 39 39 39 38 37 36 36 35 34 34 34 33 33 34 34 35 36 36 36 37 37
43 44 44 43 43 43 43 43 43 43 43 43 43 43 43 42 42 42 42 42 42 42 41 41 40 39 38 37 36 35 34 34 34 35 35 35 36 37 37 38 38 39 39 40
46 46 46 46 46 46 46 46 45 45 45 46 46 45 45 45 45 45 45 44 44 43 42 42 41 39 38 36 36 35 35 35 36 36 37 37 38 39 39 40 41 41 42 43
48 48 48 49 49 49 49 48 48 48 48 48 48 48 48 48 48 47 47 46 45 44 43 42 40 39 38 37 37 37 37 37 38 38 39 40 40 41 42 43 44 45 46 47
49 50 50 51 51 51 51 51 50 50 50 50 50 50 50 50 49 49 48 46 45 44 43 42 41 39 39 38 38 38 39 39 40 41 42 42 43 44 45 47 48 49 50 50
50 50 51 52 53 53 53 52 52 52 52 52 51 51 51 50 49 49 48 46 45 44 43 42 41 40 40 39 39 40 40 41 42 43 44 46 47 48 49 50 52 53 53 54
49 50 51 51 52 52 53 53 53 53 53 52 52 51 51 51 50 49 48 46 45 44 43 42 41 40 40 40 41 42 42 44 45 46 47 48 50 51 53 54 55 56 56 57
49 49 50 51 51 52 52 52 53 53 53 52 52 51 51 50 49 48 47 46 45 44 42 41 41 41 41 41 42 43 44 46 47 48 49 51 52 54 55 56 57 57 58 59
49 48 49 49 50 50 51 51 51 51 52 51 51 50 50 48 47 46 45 44 43 43 42 41 41 41 42 43 44 45 46 47 48 50 51 53 54 55 56 57 57 58 59 59
48 48 47 47 47 48 48 49 49 50 50 50 49 48 48 47 46 45 44 43 43 42 42 42 42 42 43 44 45 46 47 48 50 51 52 53 54 55 56 57 57 58 58 58

GEFSNGP_500_meanwind_090.txt.gz
Wind_Speed
11 11 10 10 10 9 8 7 6 5 4 4 3 1 1 3 4 6 7 9 10 11 12 14 15 16 17 18 18 19 19 20 20 21 21 21 20 20 20 20 20 20 20 19
11 11 10 11 11 10 9 8 6 5 5 4 3 2 2 3 5 6 8 9 10 11 13 14 15 16 17 17 18 18 19 19 20 20 20 20 20 19 19 19 19 20 19 19
11 12 11 10 11 11 10 8 7 6 5 4 3 3 3 4 6 7 8 9 10 11 12 14 15 16 17 17 18 18 18 19 19 19 19 20 19 19 18 18 18 19 19 19
12 12 11 11 12 11 10 9 8 7 6 5 5 5 5 6 7 8 9 10 11 12 13 14 15 16 17 18 18 19 19 19 19 19 19 19 19 18 18 18 18 18 18 18
13 13 11 11 12 12 11 10 9 8 7 7 6 6 7 8 8 9 10 11 12 13 14 15 16 16 17 18 19 19 19 20 20 19 19 19 19 18 18 17 17 17 17 17
14 14 13 12 13 13 12 11 11 10 9 8 8 9 9 9 10 11 11 12 13 13 14 15 16 17 18 19 20 20 20 21 20 20 20 19 19 18 18 17 17 17 17 17
16 16 14 14 14 14 14 13 12 12 11 11 11 11 12 12 12 13 13 13 14 14 15 16 17 18 19 20 21 22 22 22 21 21 20 20 19 19 18 18 18 18 18 18
18 18 15 16 16 16 15 15 14 14 14 13 13 13 13 14 14 14 14 15 15 15 16 17 18 19 20 21 22 23 23 23 22 22 21 21 20 20 19 19 19 18 18 18
21 20 19 19 18 18 18 18 17 17 17 16 16 15 15 16 15 15 16 16 16 17 17 18 19 21 22 23 23 24 24 24 24 24 23 23 22 21 21 20 20 20 19 19
24 22 22 22 21 20 20 20 20 19 19 18 18 18 18 17 17 17 17 17 18 18 19 20 21 22 23 24 25 25 25 25 25 25 25 24 24 23 23 22 21 20 20 20
26 25 25 25 24 24 23 23 22 21 21 21 20 20 20 19 19 19 19 19 20 20 21 22 23 24 25 26 26 27 27 27 27 26 26 25 25 24 24 23 22 22 21 21
28 27 28 27 27 27 26 25 25 24 24 23 23 22 22 22 21 21 22 22 22 22 23 24 25 25 26 27 27 28 28 28 28 28 27 26 25 25 25 24 24 24 23 23
31 30 31 30 29 29 29 28 28 27 26 26 25 25 24 24 24 24 24 24 24 25 26 26 27 27 28 28 29 29 29 29 29 29 29 28 27 26 26 26 26 25 25 24
34 33 33 32 31 31 31 30 30 29 29 28 28 27 27 27 27 26 26 26 27 27 28 28 28 29 30 30 31 31 31 31 31 31 30 29 28 28 27 27 27 27 27 26
36 36 35 34 34 33 33 32 32 31 31 31 30 30 29 29 29 29 29 29 29 29 30 30 31 31 32 32 32 33 32 32 32 32 32 31 30 29 28 28 27 27 28 28
39 39 38 37 36 36 35 34 34 33 33 33 32 32 32 32 31 31 31 31 31 31 32 32 33 33 34 34 34 34 34 34 34 33 33 32 31 30 29 29 28 28 28 29
43 41 40 39 38 38 38 37 36 36 35 35 34 34 34 34 33 33 33 33 33 34 34 34 35 35 35 36 36 36 36 36 35 34 33 33 32 31 30 30 30 30 30 30
45 43 43 42 41 41 40 39 38 38 37 37 37 37 36 36 36 35 35 36 36 36 36 37 37 37 37 37 38 37 37 37 36 36 35 34 33 32 32 31 32 32 33 33
45 44 44 44 44 43 43 43 42 41 40 40 40 39 39 39 39 38 38 38 38 39 39 39 39 39 40 40 39 39 39 38 37 36 36 35 34 34 33 33 34 34 35 35
45 45 45 45 45 45 45 44 44 44 43 43 43 43 42 42 41 41 41 41 41 41 41 41 41 41 41 41 40 40 40 39 38 38 37 36 35 35 35 35 36 36 37 38
45 46 46 46 46 46 46 46 46 46 45 45 45 45 45 44 44 43 43 43 43 43 43 43 43 43 42 42 41 41 41 40 39 38 37 37 36 37 37 37 38 39 40 40
45 45 46 47 47 47 47 47 47 47 47 47 46 46 46 46 46 46 45 45 45 45 44 44 44 43 43 43 43 42 41 40 39 38 38 37 38 38 39 39 40 41 42 43
45 45 46 46 46 47 47 47 47 47 47 47 47 47 47 47 47 47 47 46 46 46 46 45 45 45 45 44 44 42 41 40 39 39 39 39 39 40 40 41 42 43 44 46
44 45 46 46 46 46 47 47 47 47 47 47 47 47 47 47 47 47 48 48 47 47 47 46 46 46 46 45 43 42 41 40 40 40 40 40 41 41 42 43 44 45 46 48
44 44 44 45 45 46 46 46 46 46 47 47 46 47 47 47 47 47 47 47 47 47 47 47 46 46 45 44 43 42 41 41 41 41 41 42 42 43 43 44 46 47 48 49
43 43 43 44 45 45 46 46 46 46 46 46 46 46 46 46 46 46 46 46 46 46 46 46 46 45 44 43 42 41 41 41 41 42 42 43 43 44 44 46 47 48 49 50
42 43 43 43 44 45 46 46 46 46 46 46 46 46 46 46 46 46 46 45 45 45 45 45 44 44 43 42 42 41 41 41 42 42 43 43 43 44 45 46 47 48 49 50

GEFSNGP_500_meanwind_096.txt.gz
Wind_Speed
13 13 13 12 12 12 11 11 10 10 10 10 10 8 7 6 5 4 5 5 6 7 9 10 11 12 13 14 16 17 18 18 19 19 19 18 18 18 18 18 18 18 17 16
13 14 14 13 12 12 12 12 11 11 10 11 10 9 8 7 6 6 6 6 7 8 9 10 11 12 13 14 15 16 17 18 18 18 18 18 18 18 18 18 18 17 17 16
14 15 15 12 12 14 13 12 12 12 11 12 11 11 10 9 8 7 7 7 8 8 9 10 11 12 13 14 15 16 17 18 18 17 17 17 18 17 17 17 17 17 16 15
15 15 15 12 14 14 14 13 13 13 13 13 13 12 11 10 10 9 9 8 9 9 10 10 11 12 13 14 15 16 17 17 18 18 17 18 18 17 17 17 16 16 16 15
16 16 14 13 14 15 14 13 14 14 14 14 14 13 13 12 11 11 10 10 10 10 10 11 11 12 13 14 15 16 17 17 18 18 18 18 18 18 17 17 16 16 16 15
18 17 15 14 16 16 15 14 15 16 15 15 15 14 14 14 13 13 12 12 11 11 11 12 12 13 13 14 15 16 17 18 18 18 19 19 19 18 17 17 16 16 16 15
20 19 16 16 18 17 17 16 18 17 17 17 16 16 16 15 15 15 14 13 13 13 13 13 13 14 14 15 16 17 17 18 19 19 19 19 19 19 18 17 17 17 16 16
22 21 18 19 19 20 20 20 20 19 19 19 19 19 18 17 17 16 16 16 15 15 15 15 15 15 16 16 17 17 18 19 19 20 20 20 21 20 19 18 17 17 17 17
24 23 22 22 23 22 22 22 22 22 22 22 21 21 21 20 19 19 18 18 17 17 16 16 16 17 17 18 18 19 19 20 21 21 21 21 22 22 21 19 18 18 18 18
27 25 25 25 26 26 26 26 25 25 25 24 24 23 23 22 22 21 20 20 19 19 18 18 18 19 19 19 20 20 21 21 22 22 22 23 23 23 22 21 20 20 20 19
32 29 30 29 29 29 29 29 28 28 28 27 26 26 25 25 24 23 23 22 22 21 21 21 20 21 21 21 21 22 22 23 23 23 23 24 24 24 23 23 22 22 21 21
36 34 35 33 33 33 33 32 31 31 30 29 28 28 27 27 26 26 25 25 24 24 23 23 23 23 23 23 23 23 24 24 24 24 25 25 25 25 24 24 23 23 23 22
41 39 39 37 36 36 36 35 34 34 33 32 31 31 30 30 29 29 28 27 27 26 26 25 25 25 25 25 25 25 25 26 26 26 26 26 26 26 26 25 25 25 24 24
44 44 43 41 40 39 39 38 37 36 35 35 34 33 33 32 32 32 31 30 29 29 28 28 28 27 27 27 27 27 27 27 27 28 28 28 28 28 28 28 27 27 26 26
47 48 47 44 43 43 42 41 40 39 37 37 36 36 35 34 34 33 33 33 32 32 31 31 30 30 29 29 29 29 29 29 30 30 30 30 30 30 30 30 30 29 29 28
49 49 49 48 46 45 44 44 43 41 40 39 38 37 37 37 36 36 35 35 35 34 34 33 33 32 31 31 31 31 31 31 32 32 32 32 32 31 31 32 32 31 31 30
50 49 49 50 49 48 47 46 45 44 43 42 40 40 39 39 38 38 37 37 37 36 35 35 34 34 33 33 33 33 33 33 33 34 34 34 34 34 34 34 33 33 33 32
51 50 50 50 50 49 48 48 47 46 45 44 43 43 42 41 40 40 39 39 38 38 37 37 36 36 36 36 36 36 35 35 36 36 36 36 36 36 36 36 35 34 34 33
49 49 49 49 49 49 49 48 47 46 46 45 45 44 44 43 42 42 41 40 40 39 39 39 38 38 38 38 38 38 38 38 38 38 38 38 38 38 38 37 37 36 35 35
47 47 47 48 48 48 48 48 47 47 46 46 46 46 46 45 45 44 43 43 42 42 41 41 41 40 40 40 40 40 40 40 40 40 40 40 40 39 39 39 38 37 37 37
47 47 47 47 46 47 48 48 48 47 47 47 47 47 47 47 47 47 46 46 45 44 44 43 43 42 42 42 42 42 42 42 42 42 42 42 41 41 41 40 40 39 39 39
45 46 46 47 47 46 46 47 48 48 48 48 48 48 49 49 49 48 48 48 47 46 46 45 45 44 44 44 44 44 44 44 44 44 43 43 43 43 42 41 41 41 40 40
43 44 45 46 46 46 46 46 47 48 48 48 48 48 49 50 50 50 50 49 49 48 47 47 46 46 46 46 46 46 46 45 45 45 45 44 44 44 43 42 42 42 42 41
42 43 44 45 46 46 47 48 47 48 48 49 49 49 50 50 51 51 50 50 50 49 49 48 48 47 47 47 47 47 47 47 47 46 46 45 45 44 43 43 42 42 42 42
42 42 43 44 45 45 46 47 47 48 48 48 49 50 50 50 50 51 50 50 50 50 50 50 49 49 48 48 48 47 47 47 46 46 45 44 44 43 43 42 42 42 43 43
40 40 41 42 43 43 44 45 45 46 46 47 47 48 49 49 50 50 50 50 49 49 49 49 49 48 48 48 48 47 47 46 45 45 44 44 43 43 42 42 42 43 43 43
39 39 39 39 40 41 42 43 43 44 45 46 47 47 47 47 47 48 48 47 47 47 47 46 46 47 47 46 46 46 45 45 45 44 43 43 43 42 43 43 43 43 43 43

GEFSNGP_500_meanwind_102.txt.gz
Wind_Speed
12 13 13 13 13 13 13 13 12 12 12 12 13 13 13 12 12 11 10 9 8 7 7 6 6 6 6 7 8 9 11 11 12 13 13 14 14 15 15 15 15 15 14 13
13 13 14 13 13 14 14 14 14 13 12 13 15 14 13 13 12 12 11 10 9 9 8 7 7 7 7 7 8 9 10 11 12 12 13 13 14 14 14 14 14 14 14 13
14 15 15 14 14 15 15 14 15 14 13 15 15 15 14 14 13 13 13 12 11 10 9 9 8 8 8 8 8 9 10 10 11 12 12 13 13 14 14 14 14 14 13 12
16 16 17 14 15 16 16 15 16 15 15 16 16 16 16 15 15 15 14 13 13 12 11 10 10 9 9 9 9 9 10 10 11 12 12 13 13 14 14 14 14 14 13 12
18 18 17 16 17 17 17 17 18 17 17 18 18 17 17 17 17 16 16 15 14 14 13 12 11 11 11 10 10 10 10 11 11 12 12 13 13 14 14 14 14 14 14 13
20 21 20 17 18 19 19 19 20 19 19 19 19 18 19 19 19 18 18 17 16 16 15 14 13 13 12 12 12 11 11 11 12 12 13 13 14 14 14 15 15 15 14 14
23 24 22 20 21 21 21 22 22 22 21 21 21 21 20 20 20 20 20 19 18 18 17 16 16 15 15 14 14 13 13 13 13 14 14 14 14 15 15 15 15 15 15 15
26 27 25 24 24 24 25 25 24 24 24 23 23 23 22 22 22 22 22 21 20 20 19 19 18 17 17 16 16 15 15 15 15 15 15 15 15 16 16 16 16 16 16 16
30 29 29 29 29 28 28 28 27 27 27 26 26 26 25 24 24 24 24 23 22 22 21 21 20 20 19 18 18 17 17 17 16 16 17 17 17 17 17 17 17 17 17 17
34 32 33 33 32 32 32 31 31 30 30 30 29 28 28 28 27 26 26 26 25 24 24 23 23 22 22 21 20 19 19 19 18 18 18 18 18 18 18 19 19 19 19 19
38 37 37 36 36 37 36 35 35 34 33 33 32 31 31 31 30 29 29 28 28 27 26 26 25 25 24 23 23 22 22 21 20 20 20 20 20 20 20 20 21 20 20 20
42 41 42 40 40 40 40 39 39 38 37 36 36 34 34 34 33 33 32 31 30 30 29 28 28 27 27 26 25 25 24 23 23 23 22 22 22 22 22 22 22 22 22 22
46 46 46 45 44 44 44 43 42 42 41 40 39 38 37 36 35 35 35 34 33 32 32 31 30 30 29 28 28 27 27 26 25 25 25 24 24 24 24 24 24 24 24 24
49 49 49 48 47 47 47 46 46 45 44 44 43 42 40 39 38 37 37 36 35 35 34 34 33 32 32 31 30 30 29 28 28 27 27 27 27 26 26 26 26 26 26 26
49 50 50 49 49 48 48 48 48 47 46 46 46 45 44 42 41 40 40 39 38 37 36 36 35 35 34 33 33 32 31 30 30 30 29 29 29 29 29 28 28 28 28 28
49 49 50 50 50 49 49 49 50 49 48 48 48 48 47 46 44 43 42 42 41 40 39 38 37 36 36 36 35 34 33 33 32 32 32 31 31 31 31 30 30 30 30 30
48 48 49 49 49 48 49 49 50 50 49 49 49 49 49 48 47 45 44 43 43 42 41 40 39 38 37 37 36 36 35 35 34 34 33 33 33 33 33 33 32 33 33 33
49 48 48 48 47 47 47 48 48 49 48 48 49 49 49 49 48 47 45 45 44 44 43 42 41 39 39 38 38 37 37 37 36 36 35 35 35 35 35 35 35 34 34 35
47 46 46 45 45 45 45 46 46 46 47 47 47 48 48 48 48 48 47 46 45 45 44 43 42 41 41 40 39 39 38 38 38 37 37 37 37 37 36 36 36 36 36 36
45 45 45 45 45 45 45 45 45 45 46 47 46 47 47 47 47 48 48 47 46 45 46 46 45 44 42 42 41 41 40 40 39 39 39 38 38 38 38 38 38 38 38 38
44 44 44 44 44 45 45 44 44 45 45 46 46 46 46 46 46 46 48 48 47 46 46 46 46 45 45 44 43 43 42 42 41 41 41 40 40 40 40 40 40 40 40 40
43 42 42 43 43 43 44 43 43 44 44 44 44 44 44 45 46 45 46 47 47 47 47 47 46 46 46 46 45 44 44 43 43 43 42 42 41 41 41 41 41 41 41 41
42 42 41 41 42 42 42 42 42 42 42 42 42 43 43 43 44 45 46 46 46 47 47 47 47 47 47 46 46 46 45 44 44 43 43 43 43 43 43 43 43 42 42 42
41 41 41 40 40 40 40 41 40 41 41 41 41 42 43 43 43 44 46 46 46 47 47 47 48 47 47 46 46 46 45 45 45 45 44 44 45 45 44 44 44 43 43 42
39 39 39 39 38 37 37 38 38 38 39 39 40 40 40 41 42 43 44 46 46 47 47 47 47 47 47 47 46 46 46 45 46 46 46 46 45 45 45 44 43 43 42 42
37 37 37 36 36 36 36 35 35 36 37 37 38 39 39 39 40 41 42 43 44 45 46 46 45 44 44 45 45 45 45 45 46 46 45 45 45 44 44 43 42 42 41 41
36 35 34 33 34 34 34 33 34 34 35 36 36 37 38 38 39 40 42 42 42 42 43 44 44 44 44 43 43 43 43 43 43 43 43 43 43 42 42 42 42 41 41 40

GEFSNGP_500_meanwind_108.txt.gz
Wind_Speed
10 12 14 15 15 15 15 16 17 15 16 17 18 17 17 17 16 15 14 14 14 14 14 13 13 12 11 11 11 11 11 11 12 13 14 14 15 15 16 16 15 15 15 14
12 13 15 15 15 16 17 17 17 17 17 18 19 18 17 17 17 17 16 15 15 15 15 15 14 13 13 12 11 11 11 11 12 12 13 14 14 14 15 15 15 15 14 14
14 15 16 16 16 17 18 18 19 19 19 19 19 19 18 19 18 18 17 17 17 17 17 17 16 15 14 14 13 12 12 11 12 12 13 13 13 14 14 14 14 14 14 14
17 17 18 17 18 19 20 20 21 21 21 20 20 20 20 19 19 19 19 19 18 18 19 18 18 17 16 15 14 14 13 13 13 13 13 13 13 14 14 14 14 13 13 13
20 20 21 20 20 20 21 22 23 23 23 22 22 21 21 21 20 20 20 20 20 20 20 20 20 19 18 17 16 16 15 14 14 14 14 14 14 14 14 14 14 14 13 13
23 24 24 23 24 22 23 25 26 26 25 24 24 24 24 23 22 22 22 22 23 22 22 22 22 21 20 20 19 18 17 17 16 16 15 15 15 15 15 15 15 14 14 14
26 27 27 28 28 27 27 29 29 29 28 27 27 27 27 26 26 25 25 25 25 24 24 24 24 23 23 22 21 20 20 19 18 17 17 17 16 16 16 16 16 15 15 15
30 30 31 32 32 31 32 33 33 33 32 32 31 30 30 29 29 28 27 27 27 27 27 26 26 25 25 24 24 23 22 21 20 19 19 18 18 18 17 17 17 16 16 16
33 34 35 36 36 36 36 38 38 38 37 36 35 34 33 33 32 32 31 30 30 30 29 29 28 28 27 26 26 26 25 24 23 22 21 20 20 19 19 19 18 18 17 17
37 37 38 39 40 41 41 42 42 41 41 40 39 38 37 36 36 35 34 33 33 32 32 31 31 30 29 29 29 28 27 26 25 24 24 23 22 21 21 20 20 19 19 18
41 41 43 44 44 44 44 45 45 45 44 44 43 42 41 40 39 38 38 37 36 35 34 33 33 33 32 31 31 30 29 28 28 27 26 25 24 24 23 22 22 21 21 20
44 45 46 46 47 48 48 48 48 48 47 47 46 45 44 43 43 42 41 40 39 38 38 37 36 35 34 34 33 32 32 31 30 29 28 27 27 26 25 25 24 23 23 23
47 48 48 49 50 50 50 50 50 50 49 49 48 48 47 47 45 45 44 43 43 42 41 40 39 37 36 36 35 35 34 33 32 31 31 29 29 28 28 27 26 26 25 25
50 51 51 51 52 52 52 52 52 51 51 50 50 49 49 49 48 47 47 46 45 45 43 42 42 40 39 38 37 37 36 35 34 34 32 32 31 30 30 29 28 28 27 27
51 53 53 53 53 53 52 52 52 52 51 51 50 50 50 49 49 48 48 48 47 47 46 45 44 42 41 40 40 39 38 37 36 35 34 34 33 32 31 31 30 30 29 29
53 54 54 53 53 53 52 52 52 51 51 51 50 50 50 50 49 49 49 49 48 48 47 46 46 44 44 43 42 41 40 38 38 37 36 36 35 34 33 33 32 31 30 30
54 53 54 54 53 53 52 52 51 51 50 50 50 49 49 49 50 49 49 49 49 48 48 48 47 46 45 44 43 42 41 40 39 39 38 37 36 36 35 34 33 32 32 32
54 53 53 53 52 51 50 50 49 49 49 49 48 48 49 49 49 49 49 49 49 48 48 48 47 47 46 46 45 44 43 42 41 40 39 38 37 37 36 35 34 34 33 33
51 52 51 51 50 50 49 48 48 49 49 49 48 48 48 48 48 48 49 49 48 48 47 47 48 48 47 47 47 46 45 44 43 42 41 40 39 38 37 36 36 35 35 35
50 50 50 50 49 49 49 49 49 48 48 48 47 47 47 47 47 47 48 48 48 48 47 48 48 48 47 47 48 47 46 45 44 43 42 41 40 39 39 38 37 37 37 36
50 50 50 50 50 49 49 48 48 47 47 46 46 45 45 45 45 45 46 47 47 47 47 48 48 48 47 47 48 48 47 46 46 45 44 43 42 41 40 40 39 38 38 38
50 50 50 50 50 49 49 48 47 46 46 45 45 44 44 44 44 44 45 45 46 47 47 47 47 47 47 47 47 48 49 48 47 46 45 44 43 42 42 40 39 39 39 38
50 50 50 49 48 48 48 47 46 46 45 44 43 43 42 42 42 43 43 44 45 45 46 45 46 47 47 47 47 48 49 48 47 46 45 44 44 43 42 41 41 40 40 40
49 49 48 48 47 47 46 45 44 44 43 42 41 40 40 40 40 40 41 41 42 43 43 43 44 44 45 46 47 48 49 49 47 46 46 45 44 44 43 42 41 41 40 40
49 48 47 47 46 45 44 42 41 40 40 40 39 38 38 38 38 38 39 39 39 40 41 42 43 44 44 45 46 47 48 49 48 48 46 46 46 45 44 43 42 42 42 41
46 45 44 43 42 41 40 39 38 37 37 37 36 36 36 36 36 36 36 36 36 37 38 39 41 43 44 45 46 46 47 47 48 48 48 47 46 46 45 44 43 42 42 42
41 40 39 38 38 37 37 37 36 36 35 36 34 33 33 33 33 33 34 35 35 36 36 37 39 40 42 42 43 45 46 47 47 48 48 47 46 45 44 44 44 43 42 41

GEFSNGP_500_meanwind_114.txt.gz
Wind_Speed
7 7 8 9 10 11 12 12 13 14 14 15 15 16 16 16 15 15 14 14 14 14 14 14 15 15 15 15 14 13 13 12 11 11 11 11 11 11 11 11 11 11 11 11
8 9 10 11 12 12 14 15 15 16 16 17 17 17 17 17 17 16 16 16 16 16 16 16 16 16 17 16 16 15 15 14 13 12 11 11 11 10 10 10 10 10 10 10
9 10 11 13 13 14 15 16 17 17 17 18 18 18 18 18 18 18 18 18 18 18 18 18 18 18 18 18 18 17 17 16 15 14 13 12 12 11 10 10 10 10 9 9
12 12 13 14 15 16 17 18 18 18 19 20 20 20 20 20 20 20 20 20 20 20 21 21 21 21 21 20 20 19 19 18 17 16 15 14 13 12 11 11 10 10 9 9
15 16 16 17 17 18 19 20 20 20 21 22 22 23 23 23 23 23 23 23 23 23 23 23 23 23 23 22 22 22 21 21 20 19 18 17 15 14 13 12 12 11 10 9
18 19 20 20 20 21 22 23 23 23 24 25 25 25 25 26 26 27 27 26 25 25 25 26 26 25 25 25 24 24 24 23 22 21 20 19 18 17 16 14 13 12 11 11
22 23 24 24 24 25 26 27 27 27 28 29 29 30 29 28 29 29 30 30 29 28 28 28 28 28 28 27 27 26 26 26 25 24 23 22 21 19 18 17 16 14 13 12
26 27 27 28 28 28 29 31 31 32 32 32 33 33 33 33 33 32 33 33 33 32 32 31 31 31 30 30 30 29 29 28 27 26 25 25 23 22 21 19 18 17 16 15
29 30 31 31 32 32 33 34 35 36 36 37 37 37 37 37 36 37 37 37 37 36 35 35 35 35 34 33 33 32 31 31 30 29 28 27 26 25 23 22 21 19 18 17
32 33 34 34 35 36 37 38 39 40 40 40 41 41 41 41 40 40 40 40 40 40 39 38 38 38 38 37 36 35 34 33 33 31 31 30 29 28 26 25 23 22 21 20
35 36 37 38 39 40 40 41 42 43 43 44 44 44 44 45 44 44 43 43 43 43 42 42 41 41 41 40 40 39 37 36 35 34 33 32 32 30 29 28 26 25 24 23
37 38 40 41 42 43 44 44 45 46 46 47 48 48 47 47 47 47 47 46 46 46 45 45 44 43 44 43 43 42 41 39 38 37 36 35 34 33 32 30 29 28 27 26
41 42 43 44 45 46 47 48 49 49 50 50 50 50 50 50 49 49 49 48 48 47 47 46 46 45 45 45 45 45 44 42 41 40 39 37 36 35 34 33 32 30 29 28
45 46 46 47 48 49 50 51 52 52 52 53 52 52 51 50 50 50 49 48 48 47 47 46 46 46 46 47 47 47 46 45 44 43 42 40 39 37 36 35 34 33 32 31
47 48 49 49 50 51 52 53 54 54 54 53 53 53 52 51 50 50 49 48 47 47 47 46 46 45 46 46 47 47 47 47 46 45 44 43 42 40 38 37 36 35 34 33
50 51 51 52 52 52 53 54 54 54 54 53 52 52 51 51 49 48 47 47 47 47 46 46 46 45 46 46 46 47 48 48 48 48 46 45 44 43 41 40 39 38 36 35
51 52 52 52 53 53 54 54 53 53 53 52 52 50 49 48 47 46 46 46 46 46 46 46 45 45 46 46 47 47 47 48 49 49 48 47 46 45 43 42 41 39 38 37
51 52 52 52 53 54 54 53 53 52 52 52 51 50 49 48 47 46 45 45 45 46 46 46 46 45 46 46 47 47 47 47 48 49 49 48 47 46 45 44 42 41 40 39
52 52 52 53 53 53 53 53 53 52 52 51 50 49 48 48 48 47 46 46 45 45 45 46 45 45 45 46 47 47 46 46 47 48 49 49 49 48 47 45 44 42 41 40
53 53 53 54 54 54 54 53 53 52 52 52 51 49 49 48 48 48 47 45 45 44 44 45 44 44 44 45 46 47 46 46 47 47 48 48 49 49 49 47 45 44 43 42
53 53 53 53 54 53 53 53 53 52 51 51 51 50 49 48 48 48 47 46 44 44 43 43 43 43 44 45 45 46 46 46 47 47 47 48 48 48 49 48 47 45 44 42
52 52 53 53 53 53 52 52 52 52 51 50 50 49 48 47 47 46 46 45 43 43 42 42 42 42 43 44 44 45 46 46 47 48 48 48 48 48 49 48 48 47 45 43
52 52 53 53 52 52 51 51 50 50 49 48 48 48 47 46 45 45 43 42 42 42 41 40 40 40 41 42 43 43 44 46 46 47 47 47 47 47 48 48 48 47 46 44
51 52 52 52 52 51 50 49 49 49 48 47 46 46 45 45 43 43 42 40 40 40 39 39 39 39 39 40 41 42 42 44 45 46 46 46 47 47 47 48 48 47 46 45
50 50 50 50 50 49 49 48 48 48 47 45 44 43 42 42 41 40 40 39 38 37 37 37 37 37 37 38 39 41 41 42 44 45 46 46 46 47 47 47 47 47 46 45
49 49 50 50 49 48 47 47 47 46 44 42 40 39 39 39 39 38 38 37 36 35 34 34 35 34 35 36 37 38 40 41 42 44 45 45 45 45 46 46 46 46 46 45
49 48 48 48 47 46 45 45 43 42 40 39 37 36 37 37 36 36 36 35 33 32 31 31 32 32 32 33 34 34 36 38 39 41 43 44 44 44 44 44 45 45 45 44

GEFSNGP_500_meanwind_120.txt.gz
Wind_Speed
4 5 5 6 6 7 7 8 9 9 10 10 11 12 14 14 15 15 16 16 17 17 18 19 19 19 19 19 19 19 19 19 19 19 18 17 16 16 15 14 13 13 12 12
6 6 7 7 7 8 9 10 11 11 12 13 14 15 16 16 17 17 18 19 19 19 20 20 21 21 21 21 21 21 21 21 21 20 19 19 18 17 16 15 14 14 13 12
7 8 9 9 10 11 11 12 13 14 14 15 16 17 18 19 20 20 21 22 22 23 23 23 23 23 23 24 23 23 23 23 23 22 21 21 20 19 18 17 16 15 14 13
10 10 11 11 12 13 14 14 15 16 17 18 19 20 21 22 23 24 24 24 25 25 26 26 26 26 27 27 26 26 26 26 25 25 24 23 22 21 20 19 18 17 16 15
12 12 13 13 14 16 17 17 18 19 20 21 22 23 24 26 27 27 28 28 29 29 30 30 30 30 30 30 30 29 29 29 28 28 27 26 25 24 23 22 21 20 18 17
15 16 16 16 17 18 20 20 22 23 24 25 26 27 28 29 31 32 32 33 33 34 34 34 34 34 33 33 33 33 32 32 31 30 30 29 28 27 25 25 24 22 21 20
18 19 19 20 21 22 23 24 25 26 28 29 30 31 32 33 34 35 36 36 37 38 38 38 38 37 36 36 36 36 35 34 34 33 32 32 31 30 29 27 26 25 24 22
21 22 22 23 24 24 26 27 28 29 31 33 34 35 36 37 38 39 40 41 41 41 41 42 42 41 40 39 39 39 39 37 36 36 36 34 34 33 32 31 29 28 26 25
24 25 26 27 27 28 29 30 32 33 35 36 37 38 40 41 42 42 43 44 44 44 44 44 44 44 43 42 41 41 41 40 40 39 39 38 37 36 35 34 32 31 29 28
27 28 29 29 30 31 32 34 35 37 38 40 41 42 43 44 45 46 47 47 47 47 47 46 46 46 46 45 45 44 44 43 42 42 42 41 40 39 38 37 35 34 32 31
30 31 32 32 33 35 36 37 39 40 41 43 44 45 46 47 48 49 49 49 49 49 49 48 48 47 48 47 47 46 45 45 44 44 44 43 42 42 41 39 38 37 35 34
33 34 35 35 37 38 39 40 41 43 44 45 46 48 49 50 51 51 51 51 51 51 51 50 49 49 48 48 48 47 46 45 45 44 44 44 44 44 44 42 41 40 39 37
37 37 38 38 40 41 42 43 44 46 47 48 49 51 51 53 53 53 53 53 53 52 51 51 50 50 49 49 48 47 46 45 44 44 44 44 44 45 45 45 44 43 41 40
39 40 41 42 43 44 45 46 48 49 50 52 53 53 54 54 55 54 54 54 53 53 52 51 50 50 49 48 47 46 46 45 45 44 44 44 45 46 46 46 46 45 44 43
42 43 44 45 46 47 48 49 51 52 53 54 54 55 56 56 55 55 55 54 53 52 51 50 49 48 48 48 47 46 46 45 45 45 45 45 45 46 47 47 47 47 46 46
44 45 47 48 49 50 51 52 53 54 54 55 55 55 56 56 56 56 54 53 52 51 50 49 48 48 47 47 47 47 46 46 46 46 46 46 46 46 47 48 48 48 48 48
46 47 49 50 51 52 53 54 55 55 55 55 55 56 56 56 55 54 53 53 52 51 50 50 49 48 47 47 47 46 45 45 45 45 46 46 46 46 47 48 48 48 48 48
48 49 50 51 52 53 54 55 55 55 55 55 55 56 56 56 55 54 53 52 52 51 51 50 50 48 47 47 47 46 46 45 45 45 45 45 46 47 47 48 48 48 48 49
50 50 51 52 53 54 54 55 55 55 55 55 55 56 56 56 55 54 53 52 52 52 50 49 49 48 47 47 46 46 45 44 44 44 45 45 45 47 47 48 48 48 49 48
51 52 52 53 53 54 54 54 55 55 55 56 56 56 56 56 56 55 53 52 52 52 50 49 48 47 46 45 45 44 43 43 43 42 43 44 44 45 47 48 49 48 49 49
52 53 53 53 53 54 54 55 55 56 56 57 57 57 57 56 56 55 54 53 51 51 50 50 49 47 45 44 43 43 43 42 42 42 42 43 43 44 45 47 49 48 48 48
54 54 54 54 54 54 55 55 56 56 56 56 57 57 57 56 55 54 53 53 52 51 51 50 48 46 44 43 42 42 42 42 42 41 41 41 42 42 44 45 47 48 48 48
55 55 55 55 55 55 55 55 56 56 56 56 56 57 57 56 55 54 53 51 51 50 49 47 45 43 42 42 42 42 42 42 41 41 41 41 42 42 42 43 45 46 47 47
56 56 56 55 55 55 54 54 55 55 56 56 56 56 55 55 53 53 52 50 49 47 46 44 42 41 41 41 41 41 41 40 40 39 40 40 40 40 41 41 42 43 45 46
56 55 55 54 54 54 54 54 55 55 55 54 54 54 54 53 52 50 48 47 46 45 44 43 42 42 41 40 40 39 39 38 37 37 37 38 38 38 39 40 40 40 42 43
55 55 54 54 55 55 54 54 54 54 54 53 52 52 51 50 48 46 45 44 43 43 42 42 41 40 39 38 38 37 36 35 34 34 33 34 35 35 36 37 38 39 40 41
55 55 55 54 54 54 54 54 54 53 53 52 50 49 48 46 44 43 42 42 42 42 41 40 39 38 37 35 35 34 32 32 31 31 30 30 31 32 34 36 37 37 39 40

GEFSNGP_500_meanwind_126.txt.gz
Wind_Speed
2 2 2 2 3 3 4 4 5 6 7 7 8 9 10 11 12 13 14 16 17 18 19 20 21 22 22 23 24 24 25 25 25 26 26 25 24 24 23 22 22 21 20 19
4 4 4 4 4 5 5 6 6 8 8 9 10 11 12 13 14 15 17 18 19 20 21 22 23 24 25 26 27 27 27 28 28 28 28 28 27 26 25 24 23 23 22 21
5 5 6 5 6 7 7 8 9 9 10 11 12 14 15 16 17 18 19 20 21 22 23 24 25 26 28 29 29 30 30 30 30 30 30 30 29 29 28 27 25 24 24 23
7 7 7 8 8 9 10 11 11 12 13 14 15 17 18 19 20 21 22 23 24 25 26 27 29 29 30 31 31 32 33 33 33 33 33 32 31 31 30 29 28 27 26 25
9 9 10 10 11 12 12 13 14 15 16 17 18 20 21 22 24 25 26 27 28 29 30 31 32 32 33 34 34 34 35 35 35 35 35 34 34 33 33 32 30 29 28 27
11 12 13 13 14 15 16 16 17 18 19 19 21 23 24 25 27 28 30 31 32 32 33 34 35 35 36 36 37 37 37 37 37 37 37 37 37 36 36 35 33 32 31 30
15 16 16 16 17 17 18 19 19 20 21 22 23 25 27 28 29 31 32 33 35 36 36 37 38 38 39 39 40 40 40 40 39 39 39 39 39 39 39 38 36 35 34 33
18 19 19 20 20 21 21 22 22 23 24 25 26 28 29 31 32 33 34 36 37 38 38 39 40 41 41 42 43 43 43 43 42 42 41 40 40 41 40 40 39 38 37 36
21 21 22 22 23 24 24 25 25 26 27 28 29 30 32 33 35 36 36 38 39 40 40 41 42 43 44 45 46 46 46 45 44 44 43 42 41 41 40 40 40 39 39 38
24 24 24 25 26 26 27 28 28 29 29 30 32 33 34 35 36 37 39 40 41 42 43 43 44 46 47 47 48 48 47 47 46 45 44 43 42 42 41 40 41 41 41 40
27 27 27 28 29 29 30 30 31 31 32 33 34 35 36 37 38 40 41 42 43 44 45 46 47 48 49 49 49 49 48 48 47 47 46 45 43 42 41 41 41 42 41 41
30 30 30 30 31 32 32 33 33 34 35 36 37 38 39 40 41 42 43 45 46 47 48 49 49 50 50 49 49 49 48 48 47 46 45 45 44 43 42 42 42 42 42 41
33 32 33 33 34 34 35 36 36 36 37 38 39 40 41 43 44 45 46 47 48 49 50 50 51 50 50 50 49 48 48 47 45 45 45 45 44 44 43 43 43 43 43 43
35 35 35 35 36 36 37 37 38 39 40 41 42 43 44 45 46 47 48 50 50 51 51 51 51 51 50 50 49 48 47 46 46 46 45 45 44 43 42 42 42 43 43 44
36 36 36 37 37 38 39 40 41 41 42 43 44 45 46 47 48 49 50 51 51 51 51 51 51 51 51 49 48 47 47 46 46 46 44 43 42 42 41 41 41 41 42 43
37 37 37 37 38 39 40 41 42 42 44 45 46 46 48 49 49 50 51 51 51 51 51 51 51 51 50 49 48 47 47 46 46 45 44 43 42 41 41 41 41 41 41 42
37 37 38 38 39 39 40 41 43 44 45 46 47 48 49 50 50 51 51 52 52 52 52 52 52 51 50 49 49 48 48 46 45 44 43 42 42 42 42 42 42 42 41 42
38 39 40 40 40 41 41 42 44 45 46 47 49 50 50 51 51 52 52 52 52 52 53 53 53 52 50 49 49 49 48 47 46 45 44 43 42 42 42 42 42 42 41 41
39 40 41 41 42 42 43 44 45 46 48 49 50 51 51 52 52 52 53 53 53 53 52 52 52 51 50 50 50 50 49 48 47 46 44 43 43 42 42 42 42 42 41 41
41 42 42 43 43 44 45 46 47 48 50 51 52 52 52 53 53 53 53 53 53 53 52 53 52 52 51 51 51 51 49 48 47 45 44 43 42 41 41 40 41 41 42 42
44 45 45 45 45 46 47 48 49 50 52 53 53 53 53 53 53 53 53 53 53 53 53 53 53 52 52 52 51 50 48 46 44 43 42 41 41 40 40 39 40 41 42 42
46 47 47 48 48 49 50 51 52 53 53 53 54 54 54 53 53 54 54 54 54 53 53 53 52 52 52 51 49 47 45 44 43 42 41 41 41 40 40 39 39 39 41 42
49 49 49 50 50 51 52 53 54 54 54 54 54 53 53 54 54 55 55 54 54 53 53 52 52 52 50 49 47 45 44 43 43 42 41 41 41 40 39 39 38 38 39 41
52 51 51 51 52 53 53 54 54 54 54 54 54 54 54 55 55 55 55 54 54 53 53 52 51 50 48 47 45 44 43 42 42 41 41 40 39 39 38 37 37 36 37 38
54 53 53 54 54 54 54 54 54 53 53 54 54 54 55 56 56 56 54 53 53 53 52 51 49 48 46 45 44 43 42 41 41 40 39 38 37 36 35 35 35 34 35 36
55 55 55 55 54 54 54 54 54 54 54 54 55 55 55 56 55 54 53 52 51 51 50 48 47 46 44 43 43 42 41 41 40 38 37 36 35 34 33 32 31 31 32 33
55 55 55 54 54 54 55 55 55 55 56 56 56 55 55 54 54 53 52 50 49 49 47 45 44 42 41 41 41 40 39 38 37 36 35 34 33 32 30 29 28 28 29 30